Time,TemperatureF,DewpointF,PressureIn,WindDirection,WindDirectionDegrees,WindSpeedMPH,WindSpeedGustMPH,Humidity,HourlyPrecipIn,Conditions,Clouds,dailyrainin,SoftwareType,DateUTC
2013-05-23 00:01:00,74.8,70.7,19.37,NW,307,0.0,5.0,87,0.00,,,0.00,VWS V13.01,2013-05-23 04:01:00,
2013-05-23 00:06:00,74.8,70.7,19.37,NW,307,0.0,0.0,87,0.00,,,0.00,VWS V13.01,2013-05-23 04:06:00,
2013-05-23 00:11:00,74.6,70.5,19.37,NW,307,0.0,0.0,87,0.00,,,0.00,VWS V13.01,2013-05-23 04:11:00,
2013-05-23 00:12:00,74.6,70.5,19.37,NW,307,1.0,1.0,87,0.00,,,0.00,VWS V13.01,2013-05-23 04:12:00,
2013-05-23 00:16:00,74.6,70.5,19.37,NW,307,0.0,1.0,87,0.00,,,0.00,VWS V13.01,2013-05-23 04:16:00,
2013-05-23 00:17:00,74.5,70.4,19.37,NW,307,0.0,2.0,87,0.00,,,0.00,VWS V13.01,2013-05-23 04:17:00,
2013-05-23 00:21:00,74.5,70.4,19.37,NW,307,0.0,2.0,87,0.00,,,0.00,VWS V13.01,2013-05-23 04:21:00,
2013-05-23 00:22:00,74.4,70.3,19.37,NW,307,0.0,2.0,87,0.00,,,0.00,VWS V13.01,2013-05-23 04:22:00,
2013-05-23 00:26:00,74.4,70.3,19.37,NW,307,0.0,2.0,87,0.00,,,0.00,VWS V13.01,2013-05-23 04:26:00,
2013-05-23 00:27:00,74.4,70.3,19.37,NW,307,0.0,2.0,87,0.00,,,0.00,VWS V13.01,2013-05-23 04:27:00,
2013-05-23 00:31:00,74.4,70.3,19.37,NW,307,0.0,2.0,87,0.00,,,0.00,VWS V13.01,2013-05-23 04:31:00,
2013-05-23 00:32:00,74.4,70.3,19.37,NW,307,0.0,2.0,87,0.00,,,0.00,VWS V13.01,2013-05-23 04:32:00,
2013-05-23 00:36:00,74.3,70.5,19.37,NW,307,0.0,2.0,88,0.00,,,0.00,VWS V13.01,2013-05-23 04:36:00,
2013-05-23 00:37:00,74.3,70.5,19.37,NW,307,0.0,2.0,88,0.00,,,0.00,VWS V13.01,2013-05-23 04:37:00,
2013-05-23 00:41:00,74.1,70.3,19.37,NW,307,0.0,2.0,88,0.00,,,0.00,VWS V13.01,2013-05-23 04:41:00,
2013-05-23 00:42:00,74.1,70.3,19.37,NW,307,0.0,2.0,88,0.00,,,0.00,VWS V13.01,2013-05-23 04:42:00,
2013-05-23 00:46:00,74.0,70.2,19.37,NW,307,0.0,2.0,88,0.00,,,0.00,VWS V13.01,2013-05-23 04:46:00,
2013-05-23 00:47:00,74.0,70.2,19.37,NW,307,0.0,2.0,88,0.00,,,0.00,VWS V13.01,2013-05-23 04:47:00,
2013-05-23 00:48:00,73.9,70.1,19.37,NW,307,0.0,2.0,88,0.00,,,0.00,VWS V13.01,2013-05-23 04:48:00,
2013-05-23 00:52:00,73.8,70.0,19.37,NW,307,0.0,2.0,88,0.00,,,0.00,VWS V13.01,2013-05-23 04:52:00,
2013-05-23 00:53:00,73.8,70.0,19.37,NW,307,0.0,2.0,88,0.00,,,0.00,VWS V13.01,2013-05-23 04:53:00,
2013-05-23 00:57:00,73.6,69.8,19.37,NW,307,0.0,2.0,88,0.00,,,0.00,VWS V13.01,2013-05-23 04:57:00,
2013-05-23 00:58:00,73.6,69.8,19.37,NW,307,0.0,2.0,88,0.00,,,0.00,VWS V13.01,2013-05-23 04:58:00,
2013-05-23 01:02:00,73.5,69.7,19.37,NW,307,0.0,2.0,88,0.00,,,0.00,VWS V13.01,2013-05-23 05:02:00,
2013-05-23 01:03:00,73.5,69.7,19.37,NW,307,0.0,2.0,88,0.00,,,0.00,VWS V13.01,2013-05-23 05:03:00,
2013-05-23 01:07:00,73.3,69.9,19.37,NW,307,0.0,0.0,89,0.00,,,0.00,VWS V13.01,2013-05-23 05:07:00,
2013-05-23 01:08:00,73.3,69.9,19.37,NW,307,0.0,0.0,89,0.00,,,0.00,VWS V13.01,2013-05-23 05:08:00,
2013-05-23 01:09:00,73.3,69.9,19.37,NW,307,0.0,0.0,89,0.00,,,0.00,VWS V13.01,2013-05-23 05:09:00,
2013-05-23 01:12:00,73.2,69.4,19.37,NW,307,0.0,0.0,88,0.00,,,0.00,VWS V13.01,2013-05-23 05:12:00,
2013-05-23 01:13:00,73.2,69.4,19.37,NW,307,0.0,0.0,88,0.00,,,0.00,VWS V13.01,2013-05-23 05:13:00,
2013-05-23 01:14:00,73.2,69.4,19.37,NW,307,0.0,0.0,88,0.00,,,0.00,VWS V13.01,2013-05-23 05:14:00,
2013-05-23 01:17:00,73.1,69.7,19.37,NW,307,0.0,0.0,89,0.00,,,0.00,VWS V13.01,2013-05-23 05:17:00,
2013-05-23 01:18:00,73.1,69.7,19.37,NW,307,0.0,0.0,89,0.00,,,0.00,VWS V13.01,2013-05-23 05:18:00,
2013-05-23 01:19:00,73.0,69.6,19.37,NW,307,0.0,0.0,89,0.00,,,0.00,VWS V13.01,2013-05-23 05:19:00,
2013-05-23 01:23:00,72.9,69.5,19.37,NW,307,0.0,0.0,89,0.00,,,0.00,VWS V13.01,2013-05-23 05:23:00,
2013-05-23 01:24:00,72.9,69.5,19.37,NW,307,0.0,0.0,89,0.00,,,0.00,VWS V13.01,2013-05-23 05:24:00,
2013-05-23 01:28:00,72.8,69.4,19.37,NW,307,0.0,0.0,89,0.00,,,0.00,VWS V13.01,2013-05-23 05:28:00,
2013-05-23 01:29:00,72.7,69.3,19.37,NW,307,0.0,0.0,89,0.00,,,0.00,VWS V13.01,2013-05-23 05:29:00,
2013-05-23 01:33:00,72.6,69.2,19.37,NW,307,0.0,0.0,89,0.00,,,0.00,VWS V13.01,2013-05-23 05:33:00,
2013-05-23 01:34:00,72.6,69.2,19.37,NW,307,0.0,0.0,89,0.00,,,0.00,VWS V13.01,2013-05-23 05:34:00,
2013-05-23 01:38:00,72.5,69.1,19.37,NW,307,0.0,0.0,89,0.00,,,0.00,VWS V13.01,2013-05-23 05:38:00,
2013-05-23 01:39:00,72.4,69.0,19.37,NW,307,0.0,0.0,89,0.00,,,0.00,VWS V13.01,2013-05-23 05:39:00,
2013-05-23 01:44:00,72.4,69.0,19.37,NW,307,0.0,0.0,89,0.00,,,0.00,VWS V13.01,2013-05-23 05:44:00,
2013-05-23 01:45:00,72.3,68.9,19.37,NW,307,0.0,0.0,89,0.00,,,0.00,VWS V13.01,2013-05-23 05:45:00,
2013-05-23 01:49:00,72.2,68.8,19.37,NW,307,0.0,0.0,89,0.00,,,0.00,VWS V13.01,2013-05-23 05:49:00,
2013-05-23 01:50:00,72.2,68.8,19.37,NW,307,0.0,0.0,89,0.00,,,0.00,VWS V13.01,2013-05-23 05:50:00,
2013-05-23 01:54:00,72.2,68.8,19.37,NW,307,0.0,0.0,89,0.00,,,0.00,VWS V13.01,2013-05-23 05:54:00,
2013-05-23 01:55:00,72.1,68.7,19.37,NW,307,0.0,0.0,89,0.00,,,0.00,VWS V13.01,2013-05-23 05:55:00,
2013-05-23 01:59:00,72.1,68.7,19.37,NW,307,0.0,0.0,89,0.00,,,0.00,VWS V13.01,2013-05-23 05:59:00,
2013-05-23 02:00:00,72.1,68.7,19.37,NW,307,0.0,0.0,89,0.00,,,0.00,VWS V13.01,2013-05-23 06:00:00,
2013-05-23 02:04:00,72.0,68.6,19.37,NW,307,0.0,0.0,89,0.00,,,0.00,VWS V13.01,2013-05-23 06:04:00,
2013-05-23 02:05:00,72.0,68.6,19.37,NW,307,0.0,0.0,89,0.00,,,0.00,VWS V13.01,2013-05-23 06:05:00,
2013-05-23 02:09:00,72.0,68.9,19.37,NW,307,0.0,0.0,90,0.00,,,0.00,VWS V13.01,2013-05-23 06:09:00,
2013-05-23 02:10:00,72.0,68.9,19.37,NW,307,0.0,0.0,90,0.00,,,0.00,VWS V13.01,2013-05-23 06:10:00,
2013-05-23 02:14:00,71.9,68.8,19.37,NW,307,0.0,0.0,90,0.00,,,0.00,VWS V13.01,2013-05-23 06:14:00,
2013-05-23 02:15:00,71.9,68.8,19.37,NW,307,0.0,0.0,90,0.00,,,0.00,VWS V13.01,2013-05-23 06:15:00,
2013-05-23 02:16:00,71.9,68.8,19.37,NW,307,0.0,0.0,90,0.00,,,0.00,VWS V13.01,2013-05-23 06:16:00,
2013-05-23 02:19:00,71.8,68.7,19.37,NW,307,0.0,0.0,90,0.00,,,0.00,VWS V13.01,2013-05-23 06:19:00,
2013-05-23 02:20:00,71.9,68.8,19.37,NW,307,0.0,0.0,90,0.00,,,0.00,VWS V13.01,2013-05-23 06:20:00,
2013-05-23 02:21:00,71.8,68.7,19.37,NW,307,0.0,0.0,90,0.00,,,0.00,VWS V13.01,2013-05-23 06:21:00,
2013-05-23 02:24:00,71.8,68.4,19.37,NW,307,0.0,0.0,89,0.00,,,0.00,VWS V13.01,2013-05-23 06:24:00,
2013-05-23 02:25:00,71.7,68.3,19.37,NW,307,0.0,0.0,89,0.00,,,0.00,VWS V13.01,2013-05-23 06:25:00,
2013-05-23 02:26:00,71.7,68.3,19.37,NW,307,0.0,0.0,89,0.00,,,0.00,VWS V13.01,2013-05-23 06:26:00,
2013-05-23 02:30:00,71.7,68.6,19.37,NW,307,0.0,0.0,90,0.00,,,0.00,VWS V13.01,2013-05-23 06:30:00,
2013-05-23 02:31:00,71.7,68.6,19.37,NW,307,0.0,0.0,90,0.00,,,0.00,VWS V13.01,2013-05-23 06:31:00,
2013-05-23 02:32:00,71.7,68.6,19.37,NW,307,0.0,0.0,90,0.00,,,0.00,VWS V13.01,2013-05-23 06:32:00,
2013-05-23 02:35:00,71.6,68.5,19.37,NW,307,0.0,0.0,90,0.00,,,0.00,VWS V13.01,2013-05-23 06:35:00,
2013-05-23 02:36:00,71.6,68.5,19.37,NW,307,0.0,0.0,90,0.00,,,0.00,VWS V13.01,2013-05-23 06:36:00,
2013-05-23 02:37:00,71.6,68.5,19.37,NW,307,0.0,0.0,90,0.00,,,0.00,VWS V13.01,2013-05-23 06:37:00,
2013-05-23 02:40:00,71.5,68.4,19.37,NW,307,0.0,0.0,90,0.00,,,0.00,VWS V13.01,2013-05-23 06:40:00,
2013-05-23 02:41:00,71.6,68.5,19.37,NW,307,0.0,0.0,90,0.00,,,0.00,VWS V13.01,2013-05-23 06:41:00,
2013-05-23 02:42:00,71.5,68.4,19.37,NW,307,0.0,0.0,90,0.00,,,0.00,VWS V13.01,2013-05-23 06:42:00,
2013-05-23 02:45:00,71.5,68.4,19.37,NW,307,0.0,0.0,90,0.00,,,0.00,VWS V13.01,2013-05-23 06:45:00,
2013-05-23 02:46:00,71.5,68.4,19.37,NW,307,0.0,0.0,90,0.00,,,0.00,VWS V13.01,2013-05-23 06:46:00,
2013-05-23 02:47:00,71.5,68.4,19.37,NW,307,0.0,0.0,90,0.00,,,0.00,VWS V13.01,2013-05-23 06:47:00,
2013-05-23 02:50:00,71.5,68.4,19.37,NW,307,0.0,0.0,90,0.00,,,0.00,VWS V13.01,2013-05-23 06:50:00,
2013-05-23 02:52:00,71.5,68.4,19.37,NW,307,0.0,0.0,90,0.00,,,0.00,VWS V13.01,2013-05-23 06:52:00,
2013-05-23 02:55:00,71.4,68.3,19.37,NW,307,0.0,0.0,90,0.00,,,0.00,VWS V13.01,2013-05-23 06:55:00,
2013-05-23 02:57:00,71.4,68.3,19.37,NW,307,0.0,0.0,90,0.00,,,0.00,VWS V13.01,2013-05-23 06:57:00,
2013-05-23 03:00:00,71.4,68.3,19.37,NW,307,0.0,0.0,90,0.00,,,0.00,VWS V13.01,2013-05-23 07:00:00,
2013-05-23 03:02:00,71.4,68.3,19.37,NW,307,0.0,0.0,90,0.00,,,0.00,VWS V13.01,2013-05-23 07:02:00,
2013-05-23 03:06:00,71.4,68.3,19.65,NW,307,0.0,3.0,90,0.00,,,0.00,VWS V13.01,2013-05-23 07:06:00,
2013-05-23 03:07:00,71.3,68.2,19.65,NW,307,0.0,3.0,90,0.00,,,0.00,VWS V13.01,2013-05-23 07:07:00,
2013-05-23 03:08:00,71.3,68.2,19.65,NW,307,0.0,3.0,90,0.00,,,0.00,VWS V13.01,2013-05-23 07:08:00,
2013-05-23 03:11:00,71.3,68.2,19.65,NNW,333,0.0,3.0,90,0.00,,,0.00,VWS V13.01,2013-05-23 07:11:00,
2013-05-23 03:12:00,71.3,68.2,19.65,NNW,333,0.0,3.0,90,0.00,,,0.00,VWS V13.01,2013-05-23 07:12:00,
2013-05-23 03:13:00,71.3,68.2,19.65,NNW,333,0.0,3.0,90,0.00,,,0.00,VWS V13.01,2013-05-23 07:13:00,
2013-05-23 03:16:00,71.3,68.2,19.65,NNW,333,0.0,3.0,90,0.00,,,0.00,VWS V13.01,2013-05-23 07:16:00,
2013-05-23 03:18:00,71.3,68.2,19.65,NNW,333,0.0,3.0,90,0.00,,,0.00,VWS V13.01,2013-05-23 07:18:00,
2013-05-23 03:21:00,71.3,68.2,19.65,NNW,333,0.0,3.0,90,0.00,,,0.00,VWS V13.01,2013-05-23 07:21:00,
2013-05-23 03:23:00,71.2,68.1,19.65,NNW,333,0.0,3.0,90,0.00,,,0.00,VWS V13.01,2013-05-23 07:23:00,
2013-05-23 03:24:00,71.2,68.1,19.65,NNW,333,0.0,3.0,90,0.00,,,0.00,VWS V13.01,2013-05-23 07:24:00,
2013-05-23 03:26:00,71.2,68.1,19.65,NNW,333,0.0,3.0,90,0.00,,,0.00,VWS V13.01,2013-05-23 07:26:00,
2013-05-23 03:28:00,71.2,68.1,19.65,NNW,333,0.0,3.0,90,0.00,,,0.00,VWS V13.01,2013-05-23 07:28:00,
2013-05-23 03:29:00,71.1,68.0,19.65,NNW,333,0.0,3.0,90,0.00,,,0.00,VWS V13.01,2013-05-23 07:29:00,
2013-05-23 03:31:00,71.1,68.0,19.65,NNW,333,0.0,3.0,90,0.00,,,0.00,VWS V13.01,2013-05-23 07:31:00,
2013-05-23 03:33:00,71.1,68.0,19.65,NNW,333,0.0,3.0,90,0.00,,,0.00,VWS V13.01,2013-05-23 07:33:00,
2013-05-23 03:34:00,71.1,68.0,19.65,NNW,333,0.0,3.0,90,0.00,,,0.00,VWS V13.01,2013-05-23 07:34:00,
2013-05-23 03:36:00,71.1,68.0,19.65,NNW,333,0.0,3.0,90,0.00,,,0.00,VWS V13.01,2013-05-23 07:36:00,
2013-05-23 03:38:00,71.0,67.9,19.65,NNW,333,0.0,3.0,90,0.00,,,0.00,VWS V13.01,2013-05-23 07:38:00,
2013-05-23 03:40:00,71.1,68.0,19.65,NNW,333,0.0,3.0,90,0.00,,,0.00,VWS V13.01,2013-05-23 07:40:00,
2013-05-23 03:41:00,71.0,67.9,19.65,NNW,333,0.0,3.0,90,0.00,,,0.00,VWS V13.01,2013-05-23 07:41:00,
2013-05-23 03:43:00,71.0,68.2,19.65,WNW,298,0.0,3.0,91,0.00,,,0.00,VWS V13.01,2013-05-23 07:43:00,
2013-05-23 03:44:00,71.0,68.2,19.65,WNW,298,0.0,3.0,91,0.00,,,0.00,VWS V13.01,2013-05-23 07:44:00,
2013-05-23 03:45:00,71.0,68.2,19.65,WNW,298,0.0,3.0,91,0.00,,,0.00,VWS V13.01,2013-05-23 07:45:00,
2013-05-23 03:47:00,71.0,68.2,19.65,WNW,298,0.0,3.0,91,0.00,,,0.00,VWS V13.01,2013-05-23 07:47:00,
2013-05-23 03:48:00,71.0,68.2,19.65,WNW,298,0.0,3.0,91,0.00,,,0.00,VWS V13.01,2013-05-23 07:48:00,
2013-05-23 03:49:00,71.0,68.2,19.65,WNW,298,0.0,3.0,91,0.00,,,0.00,VWS V13.01,2013-05-23 07:49:00,
2013-05-23 03:50:00,71.0,68.2,19.65,WNW,298,0.0,3.0,91,0.00,,,0.00,VWS V13.01,2013-05-23 07:50:00,
2013-05-23 03:53:00,71.0,68.2,19.65,WNW,298,0.0,3.0,91,0.00,,,0.00,VWS V13.01,2013-05-23 07:53:00,
2013-05-23 03:56:00,71.0,68.2,19.65,WNW,298,0.0,3.0,91,0.00,,,0.00,VWS V13.01,2013-05-23 07:56:00,
2013-05-23 03:57:00,71.0,68.2,19.65,WNW,298,0.0,3.0,91,0.00,,,0.00,VWS V13.01,2013-05-23 07:57:00,
2013-05-23 03:58:00,71.0,68.2,19.65,WNW,298,0.0,3.0,91,0.00,,,0.00,VWS V13.01,2013-05-23 07:58:00,
2013-05-23 04:01:00,71.0,68.2,19.65,WNW,298,0.0,3.0,91,0.00,,,0.00,VWS V13.01,2013-05-23 08:01:00,
2013-05-23 04:02:00,70.9,68.2,19.65,WNW,298,0.0,3.0,91,0.00,,,0.00,VWS V13.01,2013-05-23 08:02:00,
2013-05-23 04:03:00,70.9,68.2,19.65,WNW,298,0.0,3.0,91,0.00,,,0.00,VWS V13.01,2013-05-23 08:03:00,
2013-05-23 04:06:00,70.9,68.2,19.65,WNW,298,0.0,0.0,91,0.00,,,0.00,VWS V13.01,2013-05-23 08:06:00,
2013-05-23 04:07:00,70.9,68.2,19.65,WNW,298,0.0,0.0,91,0.00,,,0.00,VWS V13.01,2013-05-23 08:07:00,
2013-05-23 04:08:00,70.9,68.2,19.65,WNW,298,0.0,0.0,91,0.00,,,0.00,VWS V13.01,2013-05-23 08:08:00,
2013-05-23 04:11:00,70.8,68.1,19.65,WNW,298,0.0,0.0,91,0.00,,,0.00,VWS V13.01,2013-05-23 08:11:00,
2013-05-23 04:12:00,70.8,68.1,19.65,WNW,298,0.0,0.0,91,0.00,,,0.00,VWS V13.01,2013-05-23 08:12:00,
2013-05-23 04:13:00,70.8,68.1,19.65,WNW,298,0.0,1.0,91,0.00,,,0.00,VWS V13.01,2013-05-23 08:13:00,
2013-05-23 04:16:00,70.8,68.1,19.65,WNW,298,0.0,1.0,91,0.00,,,0.00,VWS V13.01,2013-05-23 08:16:00,
2013-05-23 04:18:00,70.8,68.1,19.65,WNW,300,0.0,2.0,91,0.00,,,0.00,VWS V13.01,2013-05-23 08:18:00,
2013-05-23 04:21:00,70.8,68.1,19.65,WNW,300,0.0,2.0,91,0.00,,,0.00,VWS V13.01,2013-05-23 08:21:00,
2013-05-23 04:23:00,70.8,68.1,19.65,WNW,300,0.0,2.0,91,0.00,,,0.00,VWS V13.01,2013-05-23 08:23:00,
2013-05-23 04:24:00,70.8,68.1,19.65,WNW,300,0.0,2.0,91,0.00,,,0.00,VWS V13.01,2013-05-23 08:24:00,
2013-05-23 04:26:00,70.8,68.1,19.65,WNW,300,0.0,2.0,91,0.00,,,0.00,VWS V13.01,2013-05-23 08:26:00,
2013-05-23 04:28:00,70.8,68.1,19.65,WNW,300,0.0,2.0,91,0.00,,,0.00,VWS V13.01,2013-05-23 08:28:00,
2013-05-23 04:29:00,70.8,68.1,19.65,WNW,300,0.0,2.0,91,0.00,,,0.00,VWS V13.01,2013-05-23 08:29:00,
2013-05-23 04:31:00,70.8,68.1,19.65,WNW,300,0.0,2.0,91,0.00,,,0.00,VWS V13.01,2013-05-23 08:31:00,
2013-05-23 04:33:00,70.8,68.1,19.65,WNW,300,0.0,2.0,91,0.00,,,0.00,VWS V13.01,2013-05-23 08:33:00,
2013-05-23 04:34:00,70.8,68.1,19.65,WNW,300,0.0,2.0,91,0.00,,,0.00,VWS V13.01,2013-05-23 08:34:00,
2013-05-23 04:36:00,70.7,67.9,19.65,WNW,300,0.0,2.0,91,0.00,,,0.00,VWS V13.01,2013-05-23 08:36:00,
2013-05-23 04:38:00,70.7,67.9,19.65,WNW,300,0.0,2.0,91,0.00,,,0.00,VWS V13.01,2013-05-23 08:38:00,
2013-05-23 04:39:00,70.7,67.9,19.65,WNW,300,0.0,2.0,91,0.00,,,0.00,VWS V13.01,2013-05-23 08:39:00,
2013-05-23 04:41:00,70.7,67.9,19.65,WNW,300,0.0,2.0,91,0.00,,,0.00,VWS V13.01,2013-05-23 08:41:00,
2013-05-23 04:43:00,70.6,67.8,19.65,WNW,300,0.0,2.0,91,0.00,,,0.00,VWS V13.01,2013-05-23 08:43:00,
2013-05-23 04:44:00,70.6,67.8,19.65,WNW,300,0.0,2.0,91,0.00,,,0.00,VWS V13.01,2013-05-23 08:44:00,
2013-05-23 04:45:00,70.6,67.8,19.65,WNW,300,0.0,2.0,91,0.00,,,0.00,VWS V13.01,2013-05-23 08:45:00,
2013-05-23 04:47:00,70.6,67.8,19.65,WNW,300,0.0,2.0,91,0.00,,,0.00,VWS V13.01,2013-05-23 08:47:00,
2013-05-23 04:48:00,70.6,67.8,19.65,WNW,300,0.0,2.0,91,0.00,,,0.00,VWS V13.01,2013-05-23 08:48:00,
2013-05-23 04:49:00,70.6,67.8,19.65,WNW,300,0.0,2.0,91,0.00,,,0.00,VWS V13.01,2013-05-23 08:49:00,
2013-05-23 04:50:00,70.6,67.8,19.65,WNW,300,1.0,2.0,91,0.00,,,0.00,VWS V13.01,2013-05-23 08:50:00,
2013-05-23 04:52:00,70.5,67.8,19.65,WNW,300,0.0,2.0,91,0.00,,,0.00,VWS V13.01,2013-05-23 08:52:00,
2013-05-23 04:53:00,70.6,67.8,19.65,WNW,300,0.0,2.0,91,0.00,,,0.00,VWS V13.01,2013-05-23 08:53:00,
2013-05-23 04:54:00,70.5,67.8,19.65,WNW,300,0.0,2.0,91,0.00,,,0.00,VWS V13.01,2013-05-23 08:54:00,
2013-05-23 04:55:00,70.5,67.8,19.65,WNW,300,0.0,2.0,91,0.00,,,0.00,VWS V13.01,2013-05-23 08:55:00,
2013-05-23 04:57:00,70.5,67.8,19.65,WNW,300,1.0,2.0,91,0.00,,,0.00,VWS V13.01,2013-05-23 08:57:00,
2013-05-23 04:58:00,70.5,67.8,19.65,WNW,300,0.0,2.0,91,0.00,,,0.00,VWS V13.01,2013-05-23 08:58:00,
2013-05-23 05:00:00,70.4,67.7,19.65,WNW,300,0.0,2.0,91,0.00,,,0.00,VWS V13.01,2013-05-23 09:00:00,
2013-05-23 05:02:00,70.4,67.7,19.65,WNW,300,0.0,2.0,91,0.00,,,0.00,VWS V13.01,2013-05-23 09:02:00,
2013-05-23 05:03:00,70.4,67.7,19.65,WNW,300,0.0,2.0,91,0.00,,,0.00,VWS V13.01,2013-05-23 09:03:00,
2013-05-23 05:05:00,70.4,67.7,19.65,WNW,300,0.0,0.0,91,0.00,,,0.00,VWS V13.01,2013-05-23 09:05:00,
2013-05-23 05:08:00,70.4,68.0,19.65,WNW,300,0.0,0.0,92,0.00,,,0.00,VWS V13.01,2013-05-23 09:08:00,
2013-05-23 05:10:00,70.4,68.0,19.65,WNW,300,0.0,0.0,92,0.00,,,0.00,VWS V13.01,2013-05-23 09:10:00,
2013-05-23 05:13:00,70.3,67.9,19.65,WNW,300,0.0,0.0,92,0.00,,,0.00,VWS V13.01,2013-05-23 09:13:00,
2013-05-23 05:14:00,70.3,67.9,19.65,WNW,300,1.0,1.0,92,0.00,,,0.00,VWS V13.01,2013-05-23 09:14:00,
2013-05-23 05:15:00,70.3,67.9,19.65,WNW,300,0.0,4.0,92,0.00,,,0.00,VWS V13.01,2013-05-23 09:15:00,
2013-05-23 05:16:00,70.3,67.9,19.65,WNW,300,1.0,4.0,92,0.00,,,0.00,VWS V13.01,2013-05-23 09:16:00,
2013-05-23 05:18:00,70.3,67.9,19.65,WNW,300,0.0,4.0,92,0.00,,,0.00,VWS V13.01,2013-05-23 09:18:00,
2013-05-23 05:19:00,70.3,67.9,19.65,WNW,300,0.0,4.0,92,0.00,,,0.00,VWS V13.01,2013-05-23 09:19:00,
2013-05-23 05:20:00,70.3,67.9,19.65,WNW,300,0.0,4.0,92,0.00,,,0.00,VWS V13.01,2013-05-23 09:20:00,
2013-05-23 05:21:00,70.3,67.9,19.65,WNW,300,0.0,4.0,92,0.00,,,0.00,VWS V13.01,2013-05-23 09:21:00,
2013-05-23 05:23:00,70.3,67.9,19.65,NW,314,0.0,5.0,92,0.00,,,0.00,VWS V13.01,2013-05-23 09:23:00,
2013-05-23 05:24:00,70.3,67.9,19.65,NW,314,1.0,5.0,92,0.00,,,0.00,VWS V13.01,2013-05-23 09:24:00,
2013-05-23 05:25:00,70.3,67.9,19.65,WNW,295,0.0,5.0,92,0.00,,,0.00,VWS V13.01,2013-05-23 09:25:00,
2013-05-23 05:26:00,70.3,67.9,19.65,WNW,295,0.0,5.0,92,0.00,,,0.00,VWS V13.01,2013-05-23 09:26:00,
2013-05-23 05:28:00,70.3,67.9,19.65,West,281,0.0,5.0,92,0.00,,,0.00,VWS V13.01,2013-05-23 09:28:00,
2013-05-23 05:29:00,70.3,67.9,19.65,West,281,0.0,5.0,92,0.00,,,0.00,VWS V13.01,2013-05-23 09:29:00,
2013-05-23 05:30:00,70.3,67.9,19.65,West,281,0.0,5.0,92,0.00,,,0.00,VWS V13.01,2013-05-23 09:30:00,
2013-05-23 05:31:00,70.4,68.0,19.65,West,281,0.0,5.0,92,0.00,,,0.00,VWS V13.01,2013-05-23 09:31:00,
2013-05-23 05:33:00,70.3,67.9,19.65,West,281,0.0,5.0,92,0.00,,,0.00,VWS V13.01,2013-05-23 09:33:00,
2013-05-23 05:34:00,70.3,67.9,19.65,NNW,335,5.0,5.0,92,0.00,,,0.00,VWS V13.01,2013-05-23 09:34:00,
2013-05-23 05:35:00,70.4,68.0,19.65,WSW,237,0.0,5.0,92,0.00,,,0.00,VWS V13.01,2013-05-23 09:35:00,
2013-05-23 05:36:00,70.4,68.0,19.65,WSW,238,0.0,5.0,92,0.00,,,0.00,VWS V13.01,2013-05-23 09:36:00,
2013-05-23 05:37:00,70.4,68.0,19.65,West,267,6.0,6.0,92,0.00,,,0.00,VWS V13.01,2013-05-23 09:37:00,
2013-05-23 05:38:00,70.4,68.0,19.65,West,267,0.0,6.0,92,0.00,,,0.00,VWS V13.01,2013-05-23 09:38:00,
2013-05-23 05:39:00,70.4,68.0,19.65,WNW,296,0.0,6.0,92,0.00,,,0.00,VWS V13.01,2013-05-23 09:39:00,
2013-05-23 05:41:00,70.4,68.0,19.65,WNW,296,0.0,6.0,92,0.00,,,0.00,VWS V13.01,2013-05-23 09:41:00,
2013-05-23 05:42:00,70.4,68.0,19.65,WNW,295,0.0,6.0,92,0.00,,,0.00,VWS V13.01,2013-05-23 09:42:00,
2013-05-23 05:43:00,70.4,68.0,19.65,WNW,296,2.0,6.0,92,0.00,,,0.00,VWS V13.01,2013-05-23 09:43:00,
2013-05-23 05:44:00,70.4,68.0,19.65,WNW,296,0.0,6.0,92,0.00,,,0.00,VWS V13.01,2013-05-23 09:44:00,
2013-05-23 05:46:00,70.4,68.0,19.65,WNW,296,0.0,6.0,92,0.00,,,0.00,VWS V13.01,2013-05-23 09:46:00,
2013-05-23 05:47:00,70.4,68.0,19.65,WNW,295,0.0,6.0,92,0.00,,,0.00,VWS V13.01,2013-05-23 09:47:00,
2013-05-23 05:49:00,70.4,68.0,19.65,WNW,296,0.0,6.0,92,0.00,,,0.00,VWS V13.01,2013-05-23 09:49:00,
2013-05-23 05:51:00,70.4,68.0,19.65,WNW,296,0.0,6.0,92,0.00,,,0.00,VWS V13.01,2013-05-23 09:51:00,
2013-05-23 05:52:00,70.4,68.0,19.65,WNW,295,0.0,6.0,92,0.00,,,0.00,VWS V13.01,2013-05-23 09:52:00,
2013-05-23 05:54:00,70.4,68.0,19.65,WNW,295,0.0,6.0,92,0.00,,,0.00,VWS V13.01,2013-05-23 09:54:00,
2013-05-23 05:55:00,70.4,68.0,19.65,WNW,295,0.0,6.0,92,0.00,,,0.00,VWS V13.01,2013-05-23 09:55:00,
2013-05-23 05:57:00,70.4,68.0,19.65,WNW,296,0.0,6.0,92,0.00,,,0.00,VWS V13.01,2013-05-23 09:57:00,
2013-05-23 05:59:00,70.4,68.0,19.65,WNW,296,0.0,6.0,92,0.00,,,0.00,VWS V13.01,2013-05-23 09:59:00,
2013-05-23 06:00:00,70.4,68.0,19.65,WNW,296,0.0,6.0,92,0.00,,,0.00,VWS V13.01,2013-05-23 10:00:00,
2013-05-23 06:02:00,70.4,68.0,19.65,WNW,296,1.0,6.0,92,0.00,,,0.00,VWS V13.01,2013-05-23 10:02:00,
2013-05-23 06:04:00,70.5,68.1,19.65,WNW,296,0.0,0.0,92,0.00,,,0.00,VWS V13.01,2013-05-23 10:04:00,
2013-05-23 06:07:00,70.5,68.1,19.65,WNW,296,0.0,0.0,92,0.00,,,0.00,VWS V13.01,2013-05-23 10:07:00,
2013-05-23 06:10:00,70.5,68.1,19.65,WNW,296,0.0,0.0,92,0.00,,,0.00,VWS V13.01,2013-05-23 10:10:00,
2013-05-23 06:12:00,70.5,68.1,19.65,WNW,296,0.0,0.0,92,0.00,,,0.00,VWS V13.01,2013-05-23 10:12:00,
2013-05-23 06:15:00,70.5,68.1,19.65,WNW,296,0.0,0.0,92,0.00,,,0.00,VWS V13.01,2013-05-23 10:15:00,
2013-05-23 06:17:00,70.5,68.1,19.65,WNW,296,0.0,0.0,92,0.00,,,0.00,VWS V13.01,2013-05-23 10:17:00,
2013-05-23 06:18:00,70.6,68.2,19.65,WNW,296,0.0,0.0,92,0.00,,,0.00,VWS V13.01,2013-05-23 10:18:00,
2013-05-23 06:20:00,70.6,68.2,19.65,West,267,1.0,5.0,92,0.00,,,0.00,VWS V13.01,2013-05-23 10:20:00,
2013-05-23 06:22:00,70.6,68.2,19.65,West,267,0.0,5.0,92,0.00,,,0.00,VWS V13.01,2013-05-23 10:22:00,
2013-05-23 06:23:00,70.6,68.2,19.65,West,267,0.0,5.0,92,0.00,,,0.00,VWS V13.01,2013-05-23 10:23:00,
2013-05-23 06:25:00,70.6,68.2,19.65,West,267,0.0,5.0,92,0.00,,,0.00,VWS V13.01,2013-05-23 10:25:00,
2013-05-23 06:27:00,70.6,68.2,19.65,West,267,0.0,5.0,92,0.00,,,0.00,VWS V13.01,2013-05-23 10:27:00,
2013-05-23 06:28:00,70.6,68.2,19.65,West,267,0.0,5.0,92,0.00,,,0.00,VWS V13.01,2013-05-23 10:28:00,
2013-05-23 06:30:00,70.6,68.2,19.65,WNW,284,0.0,5.0,92,0.00,,,0.00,VWS V13.01,2013-05-23 10:30:00,
2013-05-23 06:32:00,70.6,68.2,19.65,WNW,284,0.0,5.0,92,0.00,,,0.00,VWS V13.01,2013-05-23 10:32:00,
2013-05-23 06:33:00,70.6,68.2,19.65,WNW,285,0.0,5.0,92,0.00,,,0.00,VWS V13.01,2013-05-23 10:33:00,
2013-05-23 06:35:00,70.7,68.3,19.65,WNW,285,0.0,5.0,92,0.00,,,0.00,VWS V13.01,2013-05-23 10:35:00,
2013-05-23 06:37:00,70.7,68.3,19.65,WNW,285,0.0,5.0,92,0.00,,,0.00,VWS V13.01,2013-05-23 10:37:00,
2013-05-23 06:38:00,70.7,68.3,19.65,NW,317,0.0,5.0,92,0.00,,,0.00,VWS V13.01,2013-05-23 10:38:00,
2013-05-23 06:39:00,70.7,68.3,19.65,NW,317,0.0,5.0,92,0.00,,,0.00,VWS V13.01,2013-05-23 10:39:00,
2013-05-23 06:40:00,70.7,68.3,19.65,NW,317,0.0,5.0,92,0.00,,,0.00,VWS V13.01,2013-05-23 10:40:00,
2013-05-23 06:43:00,70.8,68.4,19.65,NW,317,0.0,5.0,92,0.00,,,0.00,VWS V13.01,2013-05-23 10:43:00,
2013-05-23 06:44:00,70.8,68.4,19.65,NW,317,0.0,5.0,92,0.00,,,0.00,VWS V13.01,2013-05-23 10:44:00,
2013-05-23 06:46:00,70.8,68.4,19.65,NW,317,0.0,5.0,92,0.00,,,0.00,VWS V13.01,2013-05-23 10:46:00,
2013-05-23 06:48:00,70.8,68.4,19.65,NNW,340,0.0,5.0,92,0.00,,,0.00,VWS V13.01,2013-05-23 10:48:00,
2013-05-23 06:49:00,70.8,68.4,19.65,WNW,296,1.0,5.0,92,0.00,,,0.00,VWS V13.01,2013-05-23 10:49:00,
2013-05-23 06:51:00,70.9,68.5,19.65,WNW,296,2.0,5.0,92,0.00,,,0.00,VWS V13.01,2013-05-23 10:51:00,
2013-05-23 06:53:00,70.9,68.5,19.65,WNW,295,2.0,5.0,92,0.00,,,0.00,VWS V13.01,2013-05-23 10:53:00,
2013-05-23 06:54:00,70.9,68.5,19.65,WNW,295,0.0,5.0,92,0.00,,,0.00,VWS V13.01,2013-05-23 10:54:00,
2013-05-23 06:56:00,71.0,68.6,19.65,North,349,0.0,5.0,92,0.00,,,0.00,VWS V13.01,2013-05-23 10:56:00,
2013-05-23 06:58:00,71.0,68.6,19.65,SW,227,2.0,5.0,92,0.00,,,0.00,VWS V13.01,2013-05-23 10:58:00,
2013-05-23 06:59:00,71.0,68.6,19.65,SW,227,0.0,5.0,92,0.00,,,0.00,VWS V13.01,2013-05-23 10:59:00,
2013-05-23 07:01:00,71.1,68.7,19.65,SW,231,4.0,5.0,92,0.00,,,0.00,VWS V13.01,2013-05-23 11:01:00,
2013-05-23 07:03:00,71.2,68.4,19.65,WSW,254,0.0,5.0,91,0.00,,,0.00,VWS V13.01,2013-05-23 11:03:00,
2013-05-23 07:04:00,71.2,68.4,19.65,WSW,254,0.0,0.0,91,0.00,,,0.00,VWS V13.01,2013-05-23 11:04:00,
2013-05-23 07:06:00,71.3,68.5,19.65,WSW,254,0.0,3.0,91,0.00,,,0.00,VWS V13.01,2013-05-23 11:06:00,
2013-05-23 07:08:00,71.3,68.5,19.65,WSW,254,0.0,3.0,91,0.00,,,0.00,VWS V13.01,2013-05-23 11:08:00,
2013-05-23 07:09:00,71.3,68.5,19.65,WSW,254,0.0,3.0,91,0.00,,,0.00,VWS V13.01,2013-05-23 11:09:00,
2013-05-23 07:10:00,71.3,68.5,19.65,WSW,254,0.0,3.0,91,0.00,,,0.00,VWS V13.01,2013-05-23 11:10:00,
2013-05-23 07:12:00,71.3,68.5,19.65,WSW,258,0.0,3.0,91,0.00,,,0.00,VWS V13.01,2013-05-23 11:12:00,
2013-05-23 07:14:00,71.3,68.5,19.65,WSW,258,3.0,4.0,91,0.00,,,0.00,VWS V13.01,2013-05-23 11:14:00,
2013-05-23 07:15:00,71.4,68.6,19.65,WSW,258,0.0,4.0,91,0.00,,,0.00,VWS V13.01,2013-05-23 11:15:00,
2013-05-23 07:17:00,71.4,68.6,19.65,WSW,257,0.0,4.0,91,0.00,,,0.00,VWS V13.01,2013-05-23 11:17:00,
2013-05-23 07:19:00,71.5,68.7,19.65,WSW,257,0.0,5.0,91,0.00,,,0.00,VWS V13.01,2013-05-23 11:19:00,
2013-05-23 07:20:00,71.5,68.7,19.65,WSW,258,2.0,5.0,91,0.00,,,0.00,VWS V13.01,2013-05-23 11:20:00,
2013-05-23 07:22:00,71.5,68.7,19.65,WSW,258,0.0,5.0,91,0.00,,,0.00,VWS V13.01,2013-05-23 11:22:00,
2013-05-23 07:24:00,71.5,68.7,19.65,WSW,257,0.0,5.0,91,0.00,,,0.00,VWS V13.01,2013-05-23 11:24:00,
2013-05-23 07:26:00,71.6,68.8,19.65,WSW,258,0.0,5.0,91,0.00,,,0.00,VWS V13.01,2013-05-23 11:26:00,
2013-05-23 07:28:00,71.6,68.8,19.65,WSW,258,0.0,5.0,91,0.00,,,0.00,VWS V13.01,2013-05-23 11:28:00,
2013-05-23 07:29:00,71.6,68.8,19.65,WSW,257,0.0,5.0,91,0.00,,,0.00,VWS V13.01,2013-05-23 11:29:00,
2013-05-23 07:30:00,71.6,68.8,19.65,WSW,258,0.0,5.0,91,0.00,,,0.00,VWS V13.01,2013-05-23 11:30:00,
2013-05-23 07:31:00,71.6,68.8,19.65,WSW,258,0.0,5.0,91,0.00,,,0.00,VWS V13.01,2013-05-23 11:31:00,
2013-05-23 07:33:00,71.7,68.9,19.65,WSW,258,0.0,5.0,91,0.00,,,0.00,VWS V13.01,2013-05-23 11:33:00,
2013-05-23 07:34:00,71.7,68.9,19.65,WSW,258,0.0,5.0,91,0.00,,,0.00,VWS V13.01,2013-05-23 11:34:00,
2013-05-23 07:35:00,71.7,68.9,19.65,WSW,258,0.0,5.0,91,0.00,,,0.00,VWS V13.01,2013-05-23 11:35:00,
2013-05-23 07:36:00,71.7,68.9,19.65,WSW,257,4.0,5.0,91,0.00,,,0.00,VWS V13.01,2013-05-23 11:36:00,
2013-05-23 07:38:00,71.8,69.0,19.65,WSW,258,0.0,5.0,91,0.00,,,0.00,VWS V13.01,2013-05-23 11:38:00,
2013-05-23 07:39:00,71.8,69.0,19.65,WSW,257,2.0,5.0,91,0.00,,,0.00,VWS V13.01,2013-05-23 11:39:00,
2013-05-23 07:41:00,71.8,69.0,19.65,WSW,258,0.0,5.0,91,0.00,,,0.00,VWS V13.01,2013-05-23 11:41:00,
2013-05-23 07:43:00,71.9,69.1,19.65,WSW,258,0.0,5.0,91,0.00,,,0.00,VWS V13.01,2013-05-23 11:43:00,
2013-05-23 07:44:00,71.9,69.1,19.65,WSW,258,0.0,5.0,91,0.00,,,0.00,VWS V13.01,2013-05-23 11:44:00,
2013-05-23 07:46:00,72.0,69.2,19.65,WSW,258,0.0,5.0,91,0.00,,,0.00,VWS V13.01,2013-05-23 11:46:00,
2013-05-23 07:48:00,72.0,69.2,19.65,WSW,257,0.0,5.0,91,0.00,,,0.00,VWS V13.01,2013-05-23 11:48:00,
2013-05-23 07:50:00,72.0,69.2,19.65,WSW,258,0.0,5.0,91,0.00,,,0.00,VWS V13.01,2013-05-23 11:50:00,
2013-05-23 07:51:00,72.0,69.2,19.65,WSW,258,0.0,5.0,91,0.00,,,0.00,VWS V13.01,2013-05-23 11:51:00,
2013-05-23 07:53:00,72.1,69.3,19.65,WSW,258,0.0,5.0,91,0.00,,,0.00,VWS V13.01,2013-05-23 11:53:00,
2013-05-23 07:55:00,72.1,69.3,19.65,WSW,257,0.0,5.0,91,0.00,,,0.00,VWS V13.01,2013-05-23 11:55:00,
2013-05-23 07:56:00,72.1,69.3,19.65,WSW,257,0.0,5.0,91,0.00,,,0.00,VWS V13.01,2013-05-23 11:56:00,
2013-05-23 07:57:00,72.1,69.3,19.65,WSW,257,1.0,5.0,91,0.00,,,0.00,VWS V13.01,2013-05-23 11:57:00,
2013-05-23 07:59:00,72.2,69.4,19.65,WSW,257,0.0,5.0,91,0.00,,,0.00,VWS V13.01,2013-05-23 11:59:00,
2013-05-23 08:01:00,72.2,69.1,19.65,WSW,257,1.0,5.0,90,0.00,,,0.00,VWS V13.01,2013-05-23 12:01:00,
2013-05-23 08:02:00,72.2,69.1,19.65,WSW,257,0.0,5.0,90,0.00,,,0.00,VWS V13.01,2013-05-23 12:02:00,
2013-05-23 08:04:00,72.2,69.1,19.65,WSW,258,0.0,0.0,90,0.00,,,0.00,VWS V13.01,2013-05-23 12:04:00,
2013-05-23 08:06:00,72.3,69.2,19.65,West,281,0.0,11.0,90,0.00,,,0.00,VWS V13.01,2013-05-23 12:06:00,
2013-05-23 08:07:00,72.3,69.2,19.65,West,281,0.0,11.0,90,0.00,,,0.00,VWS V13.01,2013-05-23 12:07:00,
2013-05-23 08:09:00,72.3,69.2,19.65,West,281,0.0,11.0,90,0.00,,,0.00,VWS V13.01,2013-05-23 12:09:00,
2013-05-23 08:11:00,72.3,69.2,19.65,West,281,2.0,11.0,90,0.00,,,0.00,VWS V13.01,2013-05-23 12:11:00,
2013-05-23 08:12:00,72.3,69.2,19.65,West,281,0.0,11.0,90,0.00,,,0.00,VWS V13.01,2013-05-23 12:12:00,
2013-05-23 08:14:00,72.3,69.2,19.65,West,281,0.0,11.0,90,0.00,,,0.00,VWS V13.01,2013-05-23 12:14:00,
2013-05-23 08:16:00,72.3,69.2,19.65,West,281,0.0,11.0,90,0.00,,,0.00,VWS V13.01,2013-05-23 12:16:00,
2013-05-23 08:17:00,72.3,69.2,19.65,West,281,0.0,11.0,90,0.00,,,0.00,VWS V13.01,2013-05-23 12:17:00,
2013-05-23 08:19:00,72.3,69.2,19.65,SW,219,5.0,11.0,90,0.00,,,0.00,VWS V13.01,2013-05-23 12:19:00,
2013-05-23 08:21:00,72.3,69.2,19.65,SW,219,0.0,11.0,90,0.00,,,0.00,VWS V13.01,2013-05-23 12:21:00,
2013-05-23 08:22:00,72.3,69.2,19.65,SW,219,0.0,11.0,90,0.00,,,0.00,VWS V13.01,2013-05-23 12:22:00,
2013-05-23 08:25:00,72.3,69.2,19.65,West,265,0.0,11.0,90,0.00,,,0.00,VWS V13.01,2013-05-23 12:25:00,
2013-05-23 08:26:00,72.3,69.2,19.65,WSW,254,0.0,11.0,90,0.00,,,0.00,VWS V13.01,2013-05-23 12:26:00,
2013-05-23 08:27:00,72.3,69.2,19.65,WSW,254,0.0,11.0,90,0.00,,,0.00,VWS V13.01,2013-05-23 12:27:00,
2013-05-23 08:28:00,72.3,69.2,19.65,WSW,254,0.0,11.0,90,0.00,,,0.00,VWS V13.01,2013-05-23 12:28:00,
2013-05-23 08:30:00,72.4,69.3,19.65,SSW,205,0.0,11.0,90,0.00,,,0.00,VWS V13.01,2013-05-23 12:30:00,
2013-05-23 08:31:00,72.4,69.3,19.65,SSW,205,0.0,11.0,90,0.00,,,0.00,VWS V13.01,2013-05-23 12:31:00,
2013-05-23 08:32:00,72.4,69.3,19.65,SSW,205,0.0,11.0,90,0.00,,,0.00,VWS V13.01,2013-05-23 12:32:00,
2013-05-23 08:33:00,72.4,69.3,19.65,SSW,205,0.0,11.0,90,0.00,,,0.00,VWS V13.01,2013-05-23 12:33:00,
2013-05-23 08:35:00,72.5,69.4,19.65,WSW,248,1.0,11.0,90,0.00,,,0.00,VWS V13.01,2013-05-23 12:35:00,
2013-05-23 08:36:00,72.6,69.5,19.65,WSW,248,0.0,11.0,90,0.00,,,0.00,VWS V13.01,2013-05-23 12:36:00,
2013-05-23 08:37:00,72.6,69.5,19.65,WSW,253,4.0,11.0,90,0.00,,,0.00,VWS V13.01,2013-05-23 12:37:00,
2013-05-23 08:38:00,72.7,69.6,19.65,SSW,194,0.0,11.0,90,0.00,,,0.00,VWS V13.01,2013-05-23 12:38:00,
2013-05-23 08:40:00,72.9,69.8,19.65,SW,215,2.0,11.0,90,0.00,,,0.00,VWS V13.01,2013-05-23 12:40:00,
2013-05-23 08:41:00,73.0,69.9,19.65,SW,221,0.0,11.0,90,0.00,,,0.00,VWS V13.01,2013-05-23 12:41:00,
2013-05-23 08:42:00,73.0,69.9,19.65,SW,221,2.0,11.0,90,0.00,,,0.00,VWS V13.01,2013-05-23 12:42:00,
2013-05-23 08:43:00,73.1,70.0,19.65,SW,221,2.0,11.0,90,0.00,,,0.00,VWS V13.01,2013-05-23 12:43:00,
2013-05-23 08:46:00,73.3,69.9,19.65,SW,225,0.0,11.0,89,0.00,,,0.00,VWS V13.01,2013-05-23 12:46:00,
2013-05-23 08:47:00,73.5,70.1,19.65,WSW,257,0.0,11.0,89,0.00,,,0.00,VWS V13.01,2013-05-23 12:47:00,
2013-05-23 08:48:00,73.5,70.1,19.65,SSW,210,4.0,11.0,89,0.00,,,0.00,VWS V13.01,2013-05-23 12:48:00,
2013-05-23 08:49:00,73.7,70.3,19.65,SSW,210,0.0,11.0,89,0.00,,,0.00,VWS V13.01,2013-05-23 12:49:00,
2013-05-23 08:51:00,73.9,70.1,19.65,SSW,211,1.0,11.0,88,0.00,,,0.00,VWS V13.01,2013-05-23 12:51:00,
2013-05-23 08:52:00,74.0,70.2,19.65,SSW,198,2.0,11.0,88,0.00,,,0.00,VWS V13.01,2013-05-23 12:52:00,
2013-05-23 08:53:00,74.0,70.2,19.65,WNW,296,0.0,11.0,88,0.00,,,0.00,VWS V13.01,2013-05-23 12:53:00,
2013-05-23 08:54:00,74.1,70.3,19.65,SSW,210,0.0,11.0,88,0.00,,,0.00,VWS V13.01,2013-05-23 12:54:00,
2013-05-23 08:56:00,74.3,70.2,19.65,WSW,257,0.0,11.0,87,0.00,,,0.00,VWS V13.01,2013-05-23 12:56:00,
2013-05-23 08:57:00,74.3,70.2,19.65,WSW,257,0.0,11.0,87,0.00,,,0.00,VWS V13.01,2013-05-23 12:57:00,
2013-05-23 08:58:00,74.4,70.3,19.65,West,265,0.0,11.0,87,0.00,,,0.00,VWS V13.01,2013-05-23 12:58:00,
2013-05-23 08:59:00,74.4,70.3,19.65,West,272,6.0,11.0,87,0.00,,,0.00,VWS V13.01,2013-05-23 12:59:00,
2013-05-23 09:02:00,74.6,70.1,19.65,West,272,0.0,11.0,86,0.00,,,0.00,VWS V13.01,2013-05-23 13:02:00,
2013-05-23 09:03:00,74.8,70.7,19.65,WNW,284,5.0,11.0,87,0.00,,,0.00,VWS V13.01,2013-05-23 13:03:00,
2013-05-23 09:04:00,74.8,70.7,19.65,West,263,2.0,4.0,87,0.00,,,0.00,VWS V13.01,2013-05-23 13:04:00,
2013-05-23 09:07:00,75.0,70.2,19.65,WSW,243,4.0,15.0,85,0.00,,,0.00,VWS V13.01,2013-05-23 13:07:00,
2013-05-23 09:08:00,75.1,70.3,19.65,West,271,4.0,15.0,85,0.00,,,0.00,VWS V13.01,2013-05-23 13:08:00,
2013-05-23 09:09:00,75.1,70.3,19.65,West,261,0.0,15.0,85,0.00,,,0.00,VWS V13.01,2013-05-23 13:09:00,
2013-05-23 09:12:00,75.2,70.4,19.65,WNW,293,1.0,15.0,85,0.00,,,0.00,VWS V13.01,2013-05-23 13:12:00,
2013-05-23 09:13:00,75.2,70.4,19.65,WNW,292,0.0,15.0,85,0.00,,,0.00,VWS V13.01,2013-05-23 13:13:00,
2013-05-23 09:14:00,75.1,69.9,19.65,SSW,213,0.0,15.0,84,0.00,,,0.00,VWS V13.01,2013-05-23 13:14:00,
2013-05-23 09:17:00,75.1,69.9,19.65,WNW,303,4.0,15.0,84,0.00,,,0.00,VWS V13.01,2013-05-23 13:17:00,
2013-05-23 09:18:00,75.1,69.9,19.65,West,268,0.0,15.0,84,0.00,,,0.00,VWS V13.01,2013-05-23 13:18:00,
2013-05-23 09:19:00,75.2,70.0,19.65,West,268,2.0,15.0,84,0.00,,,0.00,VWS V13.01,2013-05-23 13:19:00,
2013-05-23 09:22:00,75.3,70.1,19.65,SSW,202,0.0,15.0,84,0.00,,,0.00,VWS V13.01,2013-05-23 13:22:00,
2013-05-23 09:23:00,75.4,70.2,19.65,SSW,202,0.0,15.0,84,0.00,,,0.00,VWS V13.01,2013-05-23 13:23:00,
2013-05-23 09:24:00,75.4,70.2,19.65,SSW,202,0.0,15.0,84,0.00,,,0.00,VWS V13.01,2013-05-23 13:24:00,
2013-05-23 09:27:00,75.5,70.3,19.65,SW,236,1.0,15.0,84,0.00,,,0.00,VWS V13.01,2013-05-23 13:27:00,
2013-05-23 09:28:00,75.6,70.1,19.65,SSW,211,6.0,15.0,83,0.00,,,0.00,VWS V13.01,2013-05-23 13:28:00,
2013-05-23 09:29:00,75.6,70.1,19.65,SSW,211,2.0,15.0,83,0.00,,,0.00,VWS V13.01,2013-05-23 13:29:00,
2013-05-23 09:32:00,75.5,70.0,19.65,SE,127,0.0,15.0,83,0.00,,,0.00,VWS V13.01,2013-05-23 13:32:00,
2013-05-23 09:34:00,75.5,70.0,19.65,SE,127,3.0,15.0,83,0.00,,,0.00,VWS V13.01,2013-05-23 13:34:00,
2013-05-23 09:35:00,75.5,70.0,19.65,SSW,208,0.0,15.0,83,0.00,,,0.00,VWS V13.01,2013-05-23 13:35:00,
2013-05-23 09:37:00,75.5,70.0,19.65,West,271,0.0,15.0,83,0.00,,,0.00,VWS V13.01,2013-05-23 13:37:00,
2013-05-23 09:39:00,75.5,70.0,19.65,West,271,0.0,15.0,83,0.00,,,0.00,VWS V13.01,2013-05-23 13:39:00,
2013-05-23 09:40:00,75.5,70.0,19.65,NW,309,0.0,15.0,83,0.00,,,0.00,VWS V13.01,2013-05-23 13:40:00,
2013-05-23 09:42:00,75.5,70.3,19.65,NW,309,0.0,15.0,84,0.00,,,0.00,VWS V13.01,2013-05-23 13:42:00,
2013-05-23 09:44:00,75.5,70.3,19.65,SSE,166,3.0,15.0,84,0.00,,,0.00,VWS V13.01,2013-05-23 13:44:00,
2013-05-23 09:45:00,75.5,70.3,19.65,SSW,196,0.0,15.0,84,0.00,,,0.00,VWS V13.01,2013-05-23 13:45:00,
2013-05-23 09:48:00,75.5,70.0,19.65,SSW,196,0.0,15.0,83,0.00,,,0.00,VWS V13.01,2013-05-23 13:48:00,
2013-05-23 09:49:00,75.5,70.0,19.65,WSW,242,9.0,15.0,83,0.00,,,0.00,VWS V13.01,2013-05-23 13:49:00,
2013-05-23 09:50:00,75.5,70.0,19.65,West,267,2.0,15.0,83,0.00,,,0.00,VWS V13.01,2013-05-23 13:50:00,
2013-05-23 09:53:00,75.5,70.0,19.65,WSW,245,0.0,15.0,83,0.00,,,0.00,VWS V13.01,2013-05-23 13:53:00,
2013-05-23 09:54:00,75.6,70.1,19.65,WSW,245,3.0,15.0,83,0.00,,,0.00,VWS V13.01,2013-05-23 13:54:00,
2013-05-23 09:55:00,75.6,70.1,19.65,WSW,245,2.0,15.0,83,0.00,,,0.00,VWS V13.01,2013-05-23 13:55:00,
2013-05-23 09:58:00,75.7,70.2,19.65,WSW,245,0.0,15.0,83,0.00,,,0.00,VWS V13.01,2013-05-23 13:58:00,
2013-05-23 09:59:00,75.7,70.2,19.65,South,188,4.0,15.0,83,0.00,,,0.00,VWS V13.01,2013-05-23 13:59:00,
2013-05-23 10:00:00,75.7,70.2,19.65,South,179,0.0,15.0,83,0.00,,,0.00,VWS V13.01,2013-05-23 14:00:00,
2013-05-23 10:03:00,75.7,69.8,19.65,South,188,0.0,15.0,82,0.00,,,0.00,VWS V13.01,2013-05-23 14:03:00,
2013-05-23 10:04:00,75.8,70.3,19.65,SSW,196,2.0,6.0,83,0.00,,,0.00,VWS V13.01,2013-05-23 14:04:00,
2013-05-23 10:05:00,75.8,70.3,19.65,South,187,5.0,6.0,83,0.00,,,0.00,VWS V13.01,2013-05-23 14:05:00,
2013-05-23 10:06:00,75.8,70.3,19.65,SSE,155,0.0,6.0,83,0.00,,,0.00,VWS V13.01,2013-05-23 14:06:00,
2013-05-23 10:08:00,75.9,70.0,19.65,South,179,0.0,7.0,82,0.00,,,0.00,VWS V13.01,2013-05-23 14:08:00,
2013-05-23 10:09:00,75.9,70.0,19.65,SSW,203,4.0,7.0,82,0.00,,,0.00,VWS V13.01,2013-05-23 14:09:00,
2013-05-23 10:10:00,75.9,70.0,19.65,SSE,148,0.0,7.0,82,0.00,,,0.00,VWS V13.01,2013-05-23 14:10:00,
2013-05-23 10:11:00,75.9,70.0,19.65,SSW,193,3.0,7.0,82,0.00,,,0.00,VWS V13.01,2013-05-23 14:11:00,
2013-05-23 10:13:00,76.0,70.1,19.65,NNW,331,1.0,7.0,82,0.00,,,0.00,VWS V13.01,2013-05-23 14:13:00,
2013-05-23 10:14:00,76.0,70.1,19.65,South,191,0.0,7.0,82,0.00,,,0.00,VWS V13.01,2013-05-23 14:14:00,
2013-05-23 10:15:00,76.0,70.1,19.65,SSE,165,1.0,7.0,82,0.00,,,0.00,VWS V13.01,2013-05-23 14:15:00,
2013-05-23 10:16:00,76.0,70.1,19.65,SW,219,5.0,7.0,82,0.00,,,0.00,VWS V13.01,2013-05-23 14:16:00,
2013-05-23 10:18:00,76.1,70.2,19.65,West,269,0.0,7.0,82,0.00,,,0.00,VWS V13.01,2013-05-23 14:18:00,
2013-05-23 10:19:00,76.2,70.3,19.65,West,273,2.0,7.0,82,0.00,,,0.00,VWS V13.01,2013-05-23 14:19:00,
2013-05-23 10:20:00,76.2,70.3,19.65,WNW,286,1.0,7.0,82,0.00,,,0.00,VWS V13.01,2013-05-23 14:20:00,
2013-05-23 10:21:00,76.3,70.4,19.65,SW,218,1.0,7.0,82,0.00,,,0.00,VWS V13.01,2013-05-23 14:21:00,
2013-05-23 10:24:00,76.5,71.0,19.65,SSW,205,0.0,7.0,83,0.00,,,0.00,VWS V13.01,2013-05-23 14:24:00,
2013-05-23 10:25:00,76.5,70.6,19.65,West,273,7.0,7.0,82,0.00,,,0.00,VWS V13.01,2013-05-23 14:25:00,
2013-05-23 10:26:00,76.6,70.7,19.65,WSW,248,0.0,8.0,82,0.00,,,0.00,VWS V13.01,2013-05-23 14:26:00,
2013-05-23 10:29:00,76.7,70.4,19.65,WSW,248,2.0,8.0,81,0.00,,,0.00,VWS V13.01,2013-05-23 14:29:00,
2013-05-23 10:30:00,76.7,70.4,19.65,WSW,238,2.0,8.0,81,0.00,,,0.00,VWS V13.01,2013-05-23 14:30:00,
2013-05-23 10:32:00,76.7,70.4,19.65,WSW,237,0.0,8.0,81,0.00,,,0.00,VWS V13.01,2013-05-23 14:32:00,
2013-05-23 10:34:00,76.7,70.4,19.65,SW,215,0.0,8.0,81,0.00,,,0.00,VWS V13.01,2013-05-23 14:34:00,
2013-05-23 10:35:00,76.7,70.4,19.65,SW,216,0.0,8.0,81,0.00,,,0.00,VWS V13.01,2013-05-23 14:35:00,
2013-05-23 10:37:00,76.7,70.4,19.65,SW,216,0.0,8.0,81,0.00,,,0.00,VWS V13.01,2013-05-23 14:37:00,
2013-05-23 10:39:00,76.7,70.4,19.65,SW,216,0.0,8.0,81,0.00,,,0.00,VWS V13.01,2013-05-23 14:39:00,
2013-05-23 10:40:00,76.7,70.4,19.65,West,259,4.0,8.0,81,0.00,,,0.00,VWS V13.01,2013-05-23 14:40:00,
2013-05-23 10:42:00,76.7,70.4,19.65,NW,323,0.0,8.0,81,0.00,,,0.00,VWS V13.01,2013-05-23 14:42:00,
2013-05-23 10:44:00,76.7,70.4,19.65,SW,232,0.0,8.0,81,0.00,,,0.00,VWS V13.01,2013-05-23 14:44:00,
2013-05-23 10:45:00,76.6,70.0,19.65,SW,232,1.0,8.0,80,0.00,,,0.00,VWS V13.01,2013-05-23 14:45:00,
2013-05-23 10:47:00,76.6,70.3,19.65,WSW,237,0.0,8.0,81,0.00,,,0.00,VWS V13.01,2013-05-23 14:47:00,
2013-05-23 10:49:00,76.6,70.3,19.65,WSW,238,0.0,8.0,81,0.00,,,0.00,VWS V13.01,2013-05-23 14:49:00,
2013-05-23 10:50:00,76.6,70.7,19.65,WSW,237,0.0,8.0,82,0.00,,,0.00,VWS V13.01,2013-05-23 14:50:00,
2013-05-23 10:51:00,76.6,70.7,19.65,WSW,238,0.0,8.0,82,0.00,,,0.00,VWS V13.01,2013-05-23 14:51:00,
2013-05-23 10:52:00,76.5,70.2,19.65,WSW,237,0.0,8.0,81,0.00,,,0.00,VWS V13.01,2013-05-23 14:52:00,
2013-05-23 10:54:00,76.6,70.3,19.65,WSW,237,0.0,8.0,81,0.00,,,0.00,VWS V13.01,2013-05-23 14:54:00,
2013-05-23 10:55:00,76.6,70.7,19.65,WSW,237,0.0,8.0,82,0.00,,,0.00,VWS V13.01,2013-05-23 14:55:00,
2013-05-23 10:56:00,76.6,70.7,19.65,WSW,238,2.0,8.0,82,0.00,,,0.00,VWS V13.01,2013-05-23 14:56:00,
2013-05-23 10:57:00,76.6,70.3,19.65,WSW,238,0.0,8.0,81,0.00,,,0.00,VWS V13.01,2013-05-23 14:57:00,
2013-05-23 10:59:00,76.6,70.3,19.65,WSW,237,0.0,8.0,81,0.00,,,0.00,VWS V13.01,2013-05-23 14:59:00,
2013-05-23 11:00:00,76.6,70.3,19.65,WSW,238,0.0,8.0,81,0.00,,,0.00,VWS V13.01,2013-05-23 15:00:00,
2013-05-23 11:01:00,76.6,70.3,19.65,WSW,238,0.0,8.0,81,0.00,,,0.00,VWS V13.01,2013-05-23 15:01:00,
2013-05-23 11:02:00,76.6,70.3,19.65,WSW,237,0.0,8.0,81,0.00,,,0.00,VWS V13.01,2013-05-23 15:02:00,
2013-05-23 11:05:00,76.6,70.7,19.65,NW,322,0.0,1.0,82,0.00,,,0.00,VWS V13.01,2013-05-23 15:05:00,
2013-05-23 11:06:00,76.6,70.7,19.65,NW,322,0.0,1.0,82,0.00,,,0.00,VWS V13.01,2013-05-23 15:06:00,
2013-05-23 11:07:00,76.7,70.8,19.65,SSE,161,0.0,1.0,82,0.00,,,0.00,VWS V13.01,2013-05-23 15:07:00,
2013-05-23 11:10:00,76.8,70.9,19.65,NW,313,0.0,2.0,82,0.00,,,0.00,VWS V13.01,2013-05-23 15:10:00,
2013-05-23 11:11:00,76.9,71.0,19.65,WSW,242,0.0,4.0,82,0.00,,,0.00,VWS V13.01,2013-05-23 15:11:00,
2013-05-23 11:12:00,77.1,71.2,19.65,SW,223,2.0,4.0,82,0.00,,,0.00,VWS V13.01,2013-05-23 15:12:00,
2013-05-23 11:15:00,77.3,70.7,19.65,SSW,213,4.0,8.0,80,0.00,,,0.00,VWS V13.01,2013-05-23 15:15:00,
2013-05-23 11:16:00,77.5,70.8,19.65,WSW,238,1.0,8.0,80,0.00,,,0.00,VWS V13.01,2013-05-23 15:16:00,
2013-05-23 11:17:00,77.5,70.5,19.65,South,176,1.0,8.0,79,0.00,,,0.00,VWS V13.01,2013-05-23 15:17:00,
2013-05-23 11:20:00,77.7,71.0,19.65,South,176,0.0,8.0,80,0.00,,,0.00,VWS V13.01,2013-05-23 15:20:00,
2013-05-23 11:21:00,77.7,71.0,19.65,South,176,4.0,8.0,80,0.00,,,0.00,VWS V13.01,2013-05-23 15:21:00,
2013-05-23 11:23:00,77.8,70.8,19.65,WNW,290,6.0,8.0,79,0.00,,,0.00,VWS V13.01,2013-05-23 15:23:00,
2013-05-23 11:25:00,77.9,70.9,19.65,WSW,256,0.0,11.0,79,0.00,,,0.00,VWS V13.01,2013-05-23 15:25:00,
2013-05-23 11:26:00,77.9,70.9,19.65,SSE,165,3.0,11.0,79,0.00,,,0.00,VWS V13.01,2013-05-23 15:26:00,
2013-05-23 11:28:00,78.0,71.0,19.65,SSE,165,0.0,11.0,79,0.00,,,0.00,VWS V13.01,2013-05-23 15:28:00,
2013-05-23 11:30:00,78.0,71.0,19.65,South,190,0.0,11.0,79,0.00,,,0.00,VWS V13.01,2013-05-23 15:30:00,
2013-05-23 11:31:00,78.0,71.0,19.65,South,190,1.0,11.0,79,0.00,,,0.00,VWS V13.01,2013-05-23 15:31:00,
2013-05-23 11:32:00,78.0,71.0,19.65,South,190,0.0,11.0,79,0.00,,,0.00,VWS V13.01,2013-05-23 15:32:00,
2013-05-23 11:33:00,78.0,70.6,19.65,SSE,160,4.0,11.0,78,0.00,,,0.00,VWS V13.01,2013-05-23 15:33:00,
2013-05-23 11:35:00,78.0,71.0,19.65,SSW,199,0.0,11.0,79,0.00,,,0.00,VWS V13.01,2013-05-23 15:35:00,
2013-05-23 11:36:00,77.9,70.9,19.65,SSW,206,2.0,11.0,79,0.00,,,0.00,VWS V13.01,2013-05-23 15:36:00,
2013-05-23 11:37:00,77.9,70.9,19.65,SSW,213,0.0,11.0,79,0.00,,,0.00,VWS V13.01,2013-05-23 15:37:00,
2013-05-23 11:38:00,77.8,70.8,19.65,SSW,213,0.0,11.0,79,0.00,,,0.00,VWS V13.01,2013-05-23 15:38:00,
2013-05-23 11:41:00,77.9,70.9,19.65,South,184,0.0,11.0,79,0.00,,,0.00,VWS V13.01,2013-05-23 15:41:00,
2013-05-23 11:42:00,77.9,71.2,19.65,South,184,0.0,11.0,80,0.00,,,0.00,VWS V13.01,2013-05-23 15:42:00,
2013-05-23 11:43:00,77.9,70.9,19.65,South,184,0.0,11.0,79,0.00,,,0.00,VWS V13.01,2013-05-23 15:43:00,
2013-05-23 11:46:00,78.0,71.0,19.65,South,183,0.0,11.0,79,0.00,,,0.00,VWS V13.01,2013-05-23 15:46:00,
2013-05-23 11:47:00,78.0,71.0,19.65,NW,311,5.0,11.0,79,0.00,,,0.00,VWS V13.01,2013-05-23 15:47:00,
2013-05-23 11:48:00,78.2,71.2,19.65,WSW,241,0.0,11.0,79,0.00,,,0.00,VWS V13.01,2013-05-23 15:48:00,
2013-05-23 11:51:00,78.3,71.3,19.65,South,177,5.0,11.0,79,0.00,,,0.00,VWS V13.01,2013-05-23 15:51:00,
2013-05-23 11:52:00,78.4,71.0,19.65,South,190,2.0,11.0,78,0.00,,,0.00,VWS V13.01,2013-05-23 15:52:00,
2013-05-23 11:53:00,78.4,71.0,19.65,South,190,3.0,11.0,78,0.00,,,0.00,VWS V13.01,2013-05-23 15:53:00,
2013-05-23 11:56:00,78.5,70.7,19.65,SW,236,8.0,11.0,77,0.00,,,0.00,VWS V13.01,2013-05-23 15:56:00,
2013-05-23 11:57:00,78.5,70.7,19.65,SW,217,5.0,11.0,77,0.00,,,0.00,VWS V13.01,2013-05-23 15:57:00,
2013-05-23 11:58:00,78.5,70.7,19.65,South,187,0.0,11.0,77,0.00,,,0.00,VWS V13.01,2013-05-23 15:58:00,
2013-05-23 12:01:00,78.4,70.6,19.65,SSW,200,0.0,11.0,77,0.00,,,0.00,VWS V13.01,2013-05-23 16:01:00,
2013-05-23 12:02:00,78.3,70.9,19.65,South,179,1.0,11.0,78,0.00,,,0.00,VWS V13.01,2013-05-23 16:02:00,
2013-05-23 12:03:00,78.3,70.5,19.65,South,179,2.0,11.0,77,0.00,,,0.00,VWS V13.01,2013-05-23 16:03:00,
2013-05-23 12:06:00,78.1,70.7,19.65,SSW,211,0.0,6.0,78,0.00,,,0.00,VWS V13.01,2013-05-23 16:06:00,
2013-05-23 12:07:00,78.1,70.7,19.65,SE,124,2.0,6.0,78,0.00,,,0.00,VWS V13.01,2013-05-23 16:07:00,
2013-05-23 12:08:00,78.1,70.3,19.65,South,173,3.0,7.0,77,0.00,,,0.00,VWS V13.01,2013-05-23 16:08:00,
2013-05-23 12:09:00,78.1,70.7,19.65,South,173,0.0,7.0,78,0.00,,,0.00,VWS V13.01,2013-05-23 16:09:00,
2013-05-23 12:11:00,78.0,70.6,19.65,South,185,2.0,7.0,78,0.00,,,0.00,VWS V13.01,2013-05-23 16:11:00,
2013-05-23 12:12:00,78.0,70.2,19.65,SW,226,0.0,11.0,77,0.00,,,0.00,VWS V13.01,2013-05-23 16:12:00,
2013-05-23 12:13:00,78.0,70.2,19.65,SSW,206,1.0,11.0,77,0.00,,,0.00,VWS V13.01,2013-05-23 16:13:00,
2013-05-23 12:14:00,78.0,70.2,19.65,SSW,209,6.0,11.0,77,0.00,,,0.00,VWS V13.01,2013-05-23 16:14:00,
2013-05-23 12:16:00,77.9,69.7,19.65,South,183,0.0,11.0,76,0.00,,,0.00,VWS V13.01,2013-05-23 16:16:00,
2013-05-23 12:17:00,77.9,70.1,19.65,South,188,0.0,11.0,77,0.00,,,0.00,VWS V13.01,2013-05-23 16:17:00,
2013-05-23 12:18:00,77.9,70.1,19.65,South,188,0.0,11.0,77,0.00,,,0.00,VWS V13.01,2013-05-23 16:18:00,
2013-05-23 12:19:00,77.9,69.7,19.65,NNW,338,3.0,11.0,76,0.00,,,0.00,VWS V13.01,2013-05-23 16:19:00,
2013-05-23 12:22:00,78.0,69.8,19.65,SSW,209,5.0,11.0,76,0.00,,,0.00,VWS V13.01,2013-05-23 16:22:00,
2013-05-23 12:23:00,78.1,69.5,19.65,SSW,213,1.0,11.0,75,0.00,,,0.00,VWS V13.01,2013-05-23 16:23:00,
2013-05-23 12:24:00,78.2,70.0,19.65,SSW,211,2.0,11.0,76,0.00,,,0.00,VWS V13.01,2013-05-23 16:24:00,
2013-05-23 12:27:00,78.4,69.8,19.65,South,173,4.0,11.0,75,0.00,,,0.00,VWS V13.01,2013-05-23 16:27:00,
2013-05-23 12:28:00,78.5,69.9,19.65,South,173,0.0,11.0,75,0.00,,,0.00,VWS V13.01,2013-05-23 16:28:00,
2013-05-23 12:29:00,78.7,70.1,19.65,SSE,168,0.0,11.0,75,0.00,,,0.00,VWS V13.01,2013-05-23 16:29:00,
2013-05-23 12:32:00,79.0,70.8,19.65,WSW,254,5.0,11.0,76,0.00,,,0.00,VWS V13.01,2013-05-23 16:32:00,
2013-05-23 12:33:00,79.1,69.7,19.65,South,180,7.0,11.0,73,0.00,,,0.00,VWS V13.01,2013-05-23 16:33:00,
2013-05-23 12:34:00,79.3,70.7,19.65,NNE,13,2.0,11.0,75,0.00,,,0.00,VWS V13.01,2013-05-23 16:34:00,
2013-05-23 12:35:00,79.4,70.0,19.65,SSE,156,4.0,11.0,73,0.00,,,0.00,VWS V13.01,2013-05-23 16:35:00,
2013-05-23 12:37:00,79.6,69.8,19.65,SW,226,4.0,11.0,72,0.00,,,0.00,VWS V13.01,2013-05-23 16:37:00,
2013-05-23 12:38:00,79.6,69.8,19.65,South,173,5.0,11.0,72,0.00,,,0.00,VWS V13.01,2013-05-23 16:38:00,
2013-05-23 12:39:00,79.7,69.5,19.65,SSW,195,4.0,11.0,71,0.00,,,0.00,VWS V13.01,2013-05-23 16:39:00,
2013-05-23 12:40:00,79.8,69.6,19.65,SW,226,3.0,11.0,71,0.00,,,0.00,VWS V13.01,2013-05-23 16:40:00,
2013-05-23 12:42:00,79.8,70.0,19.65,SW,225,5.0,11.0,72,0.00,,,0.00,VWS V13.01,2013-05-23 16:42:00,
2013-05-23 12:43:00,79.8,70.0,19.65,South,190,6.0,11.0,72,0.00,,,0.00,VWS V13.01,2013-05-23 16:43:00,
2013-05-23 12:45:00,79.8,70.0,19.65,South,173,1.0,11.0,72,0.00,,,0.00,VWS V13.01,2013-05-23 16:45:00,
2013-05-23 12:47:00,79.9,70.1,19.65,South,188,0.0,11.0,72,0.00,,,0.00,VWS V13.01,2013-05-23 16:47:00,
2013-05-23 12:48:00,80.0,70.2,19.65,SSW,205,2.0,11.0,72,0.00,,,0.00,VWS V13.01,2013-05-23 16:48:00,
2013-05-23 12:50:00,80.0,69.8,19.65,North,355,0.0,11.0,71,0.00,,,0.00,VWS V13.01,2013-05-23 16:50:00,
2013-05-23 12:52:00,79.9,69.2,19.65,SSW,210,1.0,11.0,70,0.00,,,0.00,VWS V13.01,2013-05-23 16:52:00,
2013-05-23 12:53:00,79.8,69.2,19.65,SW,223,5.0,11.0,70,0.00,,,0.00,VWS V13.01,2013-05-23 16:53:00,
2013-05-23 12:55:00,79.8,69.2,19.65,SW,234,2.0,13.0,70,0.00,,,0.00,VWS V13.01,2013-05-23 16:55:00,
2013-05-23 12:58:00,79.9,69.7,19.65,SW,228,0.0,13.0,71,0.00,,,0.00,VWS V13.01,2013-05-23 16:58:00,
2013-05-23 12:59:00,80.0,69.8,19.65,SSW,205,4.0,13.0,71,0.00,,,0.00,VWS V13.01,2013-05-23 16:59:00,
2013-05-23 13:00:00,80.1,70.3,19.65,South,186,5.0,13.0,72,0.00,,,0.00,VWS V13.01,2013-05-23 17:00:00,
2013-05-23 13:03:00,80.2,68.7,19.65,West,261,1.0,13.0,68,0.00,,,0.00,VWS V13.01,2013-05-23 17:03:00,
2013-05-23 13:04:00,80.1,68.6,19.65,SW,215,2.0,6.0,68,0.00,,,0.00,VWS V13.01,2013-05-23 17:04:00,
2013-05-23 13:05:00,80.1,69.0,19.65,SW,224,0.0,7.0,69,0.00,,,0.00,VWS V13.01,2013-05-23 17:05:00,
2013-05-23 13:08:00,80.1,68.6,19.65,SW,221,7.0,14.0,68,0.00,,,0.00,VWS V13.01,2013-05-23 17:08:00,
2013-05-23 13:09:00,80.1,68.6,19.65,SSW,213,5.0,14.0,68,0.00,,,0.00,VWS V13.01,2013-05-23 17:09:00,
2013-05-23 13:10:00,80.2,69.1,19.65,West,260,5.0,14.0,69,0.00,,,0.00,VWS V13.01,2013-05-23 17:10:00,
2013-05-23 13:11:00,80.2,69.1,19.65,WSW,237,2.0,14.0,69,0.00,,,0.00,VWS V13.01,2013-05-23 17:11:00,
2013-05-23 13:13:00,80.3,69.2,19.65,WSW,251,0.0,14.0,69,0.00,,,0.00,VWS V13.01,2013-05-23 17:13:00,
2013-05-23 13:14:00,80.3,68.8,19.65,SW,221,4.0,14.0,68,0.00,,,0.00,VWS V13.01,2013-05-23 17:14:00,
2013-05-23 13:16:00,80.3,69.2,19.65,SW,229,2.0,14.0,69,0.00,,,0.00,VWS V13.01,2013-05-23 17:16:00,
2013-05-23 13:18:00,80.4,69.3,19.65,SSW,200,7.0,14.0,69,0.00,,,0.00,VWS V13.01,2013-05-23 17:18:00,
2013-05-23 13:19:00,80.4,69.7,19.65,NNE,14,0.0,14.0,70,0.00,,,0.00,VWS V13.01,2013-05-23 17:19:00,
2013-05-23 13:21:00,80.5,69.4,19.65,SW,219,0.0,14.0,69,0.00,,,0.00,VWS V13.01,2013-05-23 17:21:00,
2013-05-23 13:24:00,80.6,69.5,19.65,SSW,202,0.0,14.0,69,0.00,,,0.00,VWS V13.01,2013-05-23 17:24:00,
2013-05-23 13:26:00,80.6,69.5,19.65,SSW,202,2.0,14.0,69,0.00,,,0.00,VWS V13.01,2013-05-23 17:26:00,
2013-05-23 13:29:00,80.7,69.6,19.65,SSW,202,1.0,14.0,69,0.00,,,0.00,VWS V13.01,2013-05-23 17:29:00,
2013-05-23 13:30:00,80.8,70.1,19.65,SSW,202,0.0,14.0,70,0.00,,,0.00,VWS V13.01,2013-05-23 17:30:00,
2013-05-23 13:31:00,80.8,70.1,19.65,SSW,200,2.0,14.0,70,0.00,,,0.00,VWS V13.01,2013-05-23 17:31:00,
2013-05-23 13:34:00,80.8,69.3,19.65,South,180,0.0,14.0,68,0.00,,,0.00,VWS V13.01,2013-05-23 17:34:00,
2013-05-23 13:35:00,80.8,69.3,19.65,South,180,0.0,14.0,68,0.00,,,0.00,VWS V13.01,2013-05-23 17:35:00,
2013-05-23 13:36:00,80.7,69.6,19.65,SSW,203,5.0,14.0,69,0.00,,,0.00,VWS V13.01,2013-05-23 17:36:00,
2013-05-23 13:37:00,80.7,69.6,19.65,SSW,204,3.0,14.0,69,0.00,,,0.00,VWS V13.01,2013-05-23 17:37:00,
2013-05-23 13:40:00,80.6,69.1,19.65,SSW,194,5.0,14.0,68,0.00,,,0.00,VWS V13.01,2013-05-23 17:40:00,
2013-05-23 13:42:00,80.5,69.4,19.65,SSW,194,0.0,14.0,69,0.00,,,0.00,VWS V13.01,2013-05-23 17:42:00,
2013-05-23 13:45:00,80.3,70.1,19.65,SSW,194,0.0,14.0,71,0.00,,,0.00,VWS V13.01,2013-05-23 17:45:00,
2013-05-23 13:47:00,80.2,69.1,19.65,NW,319,4.0,14.0,69,0.00,,,0.00,VWS V13.01,2013-05-23 17:47:00,
2013-05-23 13:48:00,80.2,69.5,19.65,SW,215,3.0,14.0,70,0.00,,,0.00,VWS V13.01,2013-05-23 17:48:00,
2013-05-23 13:50:00,80.1,69.4,19.65,SSW,195,1.0,14.0,70,0.00,,,0.00,VWS V13.01,2013-05-23 17:50:00,
2013-05-23 13:52:00,79.9,70.1,19.65,South,190,1.0,14.0,72,0.00,,,0.00,VWS V13.01,2013-05-23 17:52:00,
2013-05-23 13:53:00,79.8,70.0,19.65,NW,326,0.0,14.0,72,0.00,,,0.00,VWS V13.01,2013-05-23 17:53:00,
2013-05-23 13:55:00,79.5,70.1,19.65,South,188,0.0,14.0,73,0.00,,,0.00,VWS V13.01,2013-05-23 17:55:00,
2013-05-23 13:57:00,79.1,70.9,19.65,SSW,195,1.0,14.0,76,0.00,,,0.00,VWS V13.01,2013-05-23 17:57:00,
2013-05-23 13:58:00,79.1,71.3,19.65,SSW,196,1.0,14.0,77,0.00,,,0.00,VWS V13.01,2013-05-23 17:58:00,
2013-05-23 14:00:00,78.9,71.1,19.65,West,275,0.0,14.0,77,0.00,,,0.00,VWS V13.01,2013-05-23 18:00:00,
2013-05-23 14:01:00,78.8,71.0,19.65,West,275,0.0,14.0,77,0.00,,,0.00,VWS V13.01,2013-05-23 18:01:00,
2013-05-23 14:02:00,78.7,71.3,19.65,West,275,0.0,14.0,78,0.00,,,0.00,VWS V13.01,2013-05-23 18:02:00,
2013-05-23 14:03:00,78.7,71.6,19.65,West,275,4.0,14.0,79,0.00,,,0.00,VWS V13.01,2013-05-23 18:03:00,
2013-05-23 14:05:00,78.7,70.9,19.65,SW,217,4.0,6.0,77,0.00,,,0.00,VWS V13.01,2013-05-23 18:05:00,
2013-05-23 14:06:00,78.7,70.9,19.65,SSW,205,0.0,6.0,77,0.00,,,0.00,VWS V13.01,2013-05-23 18:06:00,
2013-05-23 14:07:00,78.7,70.1,19.65,SW,215,0.0,7.0,75,0.00,,,0.00,VWS V13.01,2013-05-23 18:07:00,
2013-05-23 14:08:00,78.7,70.5,19.65,WSW,245,0.0,9.0,76,0.00,,,0.00,VWS V13.01,2013-05-23 18:08:00,
2013-05-23 14:10:00,78.7,70.9,19.65,WSW,245,0.0,9.0,77,0.00,,,0.00,VWS V13.01,2013-05-23 18:10:00,
2013-05-23 14:11:00,78.7,70.9,19.65,WNW,282,0.0,9.0,77,0.00,,,0.00,VWS V13.01,2013-05-23 18:11:00,
2013-05-23 14:12:00,78.9,70.7,19.65,SW,229,0.0,9.0,76,0.00,,,0.00,VWS V13.01,2013-05-23 18:12:00,
2013-05-23 14:13:00,78.9,70.7,19.65,SW,229,0.0,9.0,76,0.00,,,0.00,VWS V13.01,2013-05-23 18:13:00,
2013-05-23 14:15:00,79.0,70.8,19.65,NNW,340,5.0,9.0,76,0.00,,,0.00,VWS V13.01,2013-05-23 18:15:00,
2013-05-23 14:16:00,79.0,71.2,19.65,South,188,4.0,9.0,77,0.00,,,0.00,VWS V13.01,2013-05-23 18:16:00,
2013-05-23 14:18:00,79.0,70.4,19.65,WSW,240,4.0,9.0,75,0.00,,,0.00,VWS V13.01,2013-05-23 18:18:00,
2013-05-23 14:21:00,79.0,70.8,19.65,SW,234,0.0,9.0,76,0.00,,,0.00,VWS V13.01,2013-05-23 18:21:00,
2013-05-23 14:23:00,79.0,70.4,19.65,SW,219,2.0,9.0,75,0.00,,,0.00,VWS V13.01,2013-05-23 18:23:00,
2013-05-23 14:26:00,79.1,70.5,19.65,ENE,70,0.0,9.0,75,0.00,,,0.00,VWS V13.01,2013-05-23 18:26:00,
2013-05-23 14:28:00,79.1,70.9,19.65,ENE,70,0.0,9.0,76,0.00,,,0.00,VWS V13.01,2013-05-23 18:28:00,
2013-05-23 14:29:00,79.2,71.0,19.65,South,186,5.0,9.0,76,0.00,,,0.00,VWS V13.01,2013-05-23 18:29:00,
2013-05-23 14:31:00,79.1,70.5,19.37,South,179,0.0,9.0,75,0.00,,,0.00,VWS V13.01,2013-05-23 18:31:00,
2013-05-23 14:33:00,79.0,70.4,19.37,SSW,198,4.0,9.0,75,0.00,,,0.00,VWS V13.01,2013-05-23 18:33:00,
2013-05-23 14:34:00,79.0,70.0,19.37,South,190,3.0,9.0,74,0.00,,,0.00,VWS V13.01,2013-05-23 18:34:00,
2013-05-23 14:36:00,78.8,69.8,19.37,SW,229,4.0,9.0,74,0.00,,,0.00,VWS V13.01,2013-05-23 18:36:00,
2013-05-23 14:38:00,78.7,69.3,19.37,South,171,1.0,9.0,73,0.00,,,0.00,VWS V13.01,2013-05-23 18:38:00,
2013-05-23 14:39:00,78.7,68.9,19.37,SSW,209,5.0,9.0,72,0.00,,,0.00,VWS V13.01,2013-05-23 18:39:00,
2013-05-23 14:41:00,78.7,68.9,19.37,SSW,209,0.0,9.0,72,0.00,,,0.00,VWS V13.01,2013-05-23 18:41:00,
2013-05-23 14:42:00,78.7,68.9,19.37,SSW,209,0.0,9.0,72,0.00,,,0.00,VWS V13.01,2013-05-23 18:42:00,
2013-05-23 14:43:00,78.7,69.7,19.37,NNW,331,0.0,9.0,74,0.00,,,0.00,VWS V13.01,2013-05-23 18:43:00,
2013-05-23 14:45:00,78.7,69.7,19.37,West,280,0.0,9.0,74,0.00,,,0.00,VWS V13.01,2013-05-23 18:45:00,
2013-05-23 14:46:00,78.9,69.5,19.37,WNW,296,0.0,9.0,73,0.00,,,0.00,VWS V13.01,2013-05-23 18:46:00,
2013-05-23 14:47:00,79.0,69.6,19.37,WNW,296,0.0,9.0,73,0.00,,,0.00,VWS V13.01,2013-05-23 18:47:00,
2013-05-23 14:48:00,79.1,70.1,19.37,WNW,296,0.0,9.0,74,0.00,,,0.00,VWS V13.01,2013-05-23 18:48:00,
2013-05-23 14:50:00,79.3,70.3,19.37,SW,222,2.0,9.0,74,0.00,,,0.00,VWS V13.01,2013-05-23 18:50:00,
2013-05-23 14:51:00,79.4,70.0,19.37,SSW,204,1.0,9.0,73,0.00,,,0.00,VWS V13.01,2013-05-23 18:51:00,
2013-05-23 14:52:00,79.5,70.1,19.37,SSW,204,0.0,9.0,73,0.00,,,0.00,VWS V13.01,2013-05-23 18:52:00,
2013-05-23 14:53:00,79.6,69.8,19.37,NNE,22,1.0,9.0,72,0.00,,,0.00,VWS V13.01,2013-05-23 18:53:00,
2013-05-23 14:55:00,79.7,69.9,19.37,West,272,0.0,9.0,72,0.00,,,0.00,VWS V13.01,2013-05-23 18:55:00,
2013-05-23 14:57:00,79.8,70.0,19.37,SSE,168,1.0,9.0,72,0.00,,,0.00,VWS V13.01,2013-05-23 18:57:00,
2013-05-23 14:58:00,79.8,70.0,19.37,South,173,0.0,9.0,72,0.00,,,0.00,VWS V13.01,2013-05-23 18:58:00,
2013-05-23 15:00:00,79.8,70.0,19.37,South,180,7.0,9.0,72,0.00,,,0.00,VWS V13.01,2013-05-23 19:00:00,
2013-05-23 15:02:00,79.7,69.5,19.37,South,176,2.0,9.0,71,0.00,,,0.00,VWS V13.01,2013-05-23 19:02:00,
2013-05-23 15:03:00,79.7,69.5,19.37,SSW,200,1.0,9.0,71,0.00,,,0.00,VWS V13.01,2013-05-23 19:03:00,
2013-05-23 15:05:00,79.6,69.8,19.37,SSW,200,3.0,5.0,72,0.00,,,0.00,VWS V13.01,2013-05-23 19:05:00,
2013-05-23 15:07:00,79.5,70.5,19.37,SSW,205,0.0,6.0,74,0.00,,,0.01,VWS V13.01,2013-05-23 19:07:00,
2013-05-23 15:08:00,79.3,70.7,19.37,SSW,205,0.0,6.0,75,0.01,,,0.01,VWS V13.01,2013-05-23 19:08:00,
2013-05-23 15:10:00,79.0,70.8,19.37,SSW,204,0.0,6.0,76,0.01,,,0.01,VWS V13.01,2013-05-23 19:10:00,
2013-05-23 15:12:00,78.7,70.9,19.37,SSW,203,0.0,6.0,77,0.01,,,0.01,VWS V13.01,2013-05-23 19:12:00,
2013-05-23 15:13:00,78.4,70.6,19.37,SSW,204,0.0,6.0,77,0.01,,,0.01,VWS V13.01,2013-05-23 19:13:00,
2013-05-23 15:15:00,78.0,71.0,19.37,SSW,205,0.0,6.0,79,0.01,,,0.01,VWS V13.01,2013-05-23 19:15:00,
2013-05-23 15:17:00,77.5,70.5,19.37,SSE,157,0.0,6.0,79,0.01,,,0.01,VWS V13.01,2013-05-23 19:17:00,
2013-05-23 15:18:00,77.5,70.8,19.37,SSE,157,1.0,6.0,80,0.02,,,0.02,VWS V13.01,2013-05-23 19:18:00,
2013-05-23 15:19:00,77.2,70.9,19.37,SSE,166,3.0,6.0,81,0.02,,,0.02,VWS V13.01,2013-05-23 19:19:00,
2013-05-23 15:20:00,76.9,71.0,19.37,SSE,166,0.0,6.0,82,0.02,,,0.02,VWS V13.01,2013-05-23 19:20:00,
2013-05-23 15:22:00,76.5,70.6,19.37,SSE,166,0.0,6.0,82,0.02,,,0.02,VWS V13.01,2013-05-23 19:22:00,
2013-05-23 15:23:00,76.4,70.5,19.37,SSE,165,0.0,6.0,82,0.02,,,0.02,VWS V13.01,2013-05-23 19:23:00,
2013-05-23 15:24:00,76.2,70.7,19.37,SSE,166,0.0,6.0,83,0.02,,,0.02,VWS V13.01,2013-05-23 19:24:00,
2013-05-23 15:25:00,76.0,70.8,19.37,SSE,166,0.0,6.0,84,0.02,,,0.02,VWS V13.01,2013-05-23 19:25:00,
2013-05-23 15:27:00,75.7,70.5,19.37,SSE,165,0.0,6.0,84,0.02,,,0.02,VWS V13.01,2013-05-23 19:27:00,
2013-05-23 15:28:00,75.7,70.9,19.37,SSE,166,0.0,6.0,85,0.02,,,0.02,VWS V13.01,2013-05-23 19:28:00,
2013-05-23 15:29:00,75.5,70.7,19.37,SSE,166,0.0,6.0,85,0.02,,,0.02,VWS V13.01,2013-05-23 19:29:00,
2013-05-23 15:30:00,75.4,70.6,19.37,SSE,165,0.0,6.0,85,0.02,,,0.02,VWS V13.01,2013-05-23 19:30:00,
2013-05-23 15:32:00,75.1,70.6,19.37,SSE,166,0.0,6.0,86,0.02,,,0.02,VWS V13.01,2013-05-23 19:32:00,
2013-05-23 15:33:00,75.1,70.6,19.37,SSE,165,0.0,6.0,86,0.02,,,0.02,VWS V13.01,2013-05-23 19:33:00,
2013-05-23 15:34:00,75.1,70.6,19.37,SSE,166,0.0,6.0,86,0.02,,,0.02,VWS V13.01,2013-05-23 19:34:00,
2013-05-23 15:35:00,75.0,70.9,19.37,SSE,166,0.0,6.0,87,0.02,,,0.02,VWS V13.01,2013-05-23 19:35:00,
2013-05-23 15:37:00,74.9,71.1,19.37,SSE,166,0.0,6.0,88,0.02,,,0.02,VWS V13.01,2013-05-23 19:37:00,
2013-05-23 15:38:00,74.8,71.0,19.37,West,259,0.0,6.0,88,0.02,,,0.02,VWS V13.01,2013-05-23 19:38:00,
2013-05-23 15:39:00,74.8,71.3,19.37,West,259,2.0,6.0,89,0.02,,,0.02,VWS V13.01,2013-05-23 19:39:00,
2013-05-23 15:40:00,74.8,71.3,19.37,South,190,1.0,6.0,89,0.02,,,0.02,VWS V13.01,2013-05-23 19:40:00,
2013-05-23 15:41:00,74.7,70.9,19.37,West,272,6.0,7.0,88,0.02,,,0.02,VWS V13.01,2013-05-23 19:41:00,
2013-05-23 15:43:00,74.6,70.8,19.37,South,190,2.0,7.0,88,0.02,,,0.02,VWS V13.01,2013-05-23 19:43:00,
2013-05-23 15:45:00,74.3,70.2,19.37,SW,217,2.0,9.0,87,0.02,,,0.02,VWS V13.01,2013-05-23 19:45:00,
2013-05-23 15:46:00,74.2,70.1,19.37,SSW,211,0.0,9.0,87,0.02,,,0.02,VWS V13.01,2013-05-23 19:46:00,
2013-05-23 15:48:00,74.1,70.3,19.37,South,171,4.0,9.0,88,0.02,,,0.02,VWS V13.01,2013-05-23 19:48:00,
2013-05-23 15:50:00,73.8,70.0,19.37,SSW,205,0.0,9.0,88,0.02,,,0.02,VWS V13.01,2013-05-23 19:50:00,
2013-05-23 15:51:00,73.7,69.9,19.37,WSW,248,0.0,9.0,88,0.02,,,0.02,VWS V13.01,2013-05-23 19:51:00,
2013-05-23 15:53:00,73.6,69.8,19.37,WSW,248,2.0,9.0,88,0.02,,,0.02,VWS V13.01,2013-05-23 19:53:00,
2013-05-23 15:55:00,73.4,69.6,19.37,WSW,244,2.0,9.0,88,0.02,,,0.02,VWS V13.01,2013-05-23 19:55:00,
2013-05-23 15:56:00,73.4,69.6,19.37,WSW,244,0.0,9.0,88,0.02,,,0.02,VWS V13.01,2013-05-23 19:56:00,
2013-05-23 15:58:00,73.3,69.5,19.37,WSW,244,0.0,9.0,88,0.02,,,0.02,VWS V13.01,2013-05-23 19:58:00,
2013-05-23 16:00:00,73.2,69.8,19.37,WSW,244,2.0,9.0,89,0.02,,,0.02,VWS V13.01,2013-05-23 20:00:00,
2013-05-23 16:01:00,73.2,69.8,19.37,WSW,244,0.0,9.0,89,0.02,,,0.02,VWS V13.01,2013-05-23 20:01:00,
2013-05-23 16:03:00,73.1,69.3,19.37,SW,221,5.0,9.0,88,0.02,,,0.02,VWS V13.01,2013-05-23 20:03:00,
2013-05-23 16:05:00,73.2,69.4,19.37,WSW,248,0.0,5.0,88,0.02,,,0.02,VWS V13.01,2013-05-23 20:05:00,
2013-05-23 16:06:00,73.2,69.4,19.37,WSW,248,0.0,5.0,88,0.02,,,0.02,VWS V13.01,2013-05-23 20:06:00,
2013-05-23 16:08:00,73.3,69.9,19.37,WSW,248,0.0,5.0,89,0.02,,,0.02,VWS V13.01,2013-05-23 20:08:00,
2013-05-23 16:09:00,73.4,69.6,19.37,WSW,248,0.0,5.0,88,0.02,,,0.02,VWS V13.01,2013-05-23 20:09:00,
2013-05-23 16:10:00,73.4,69.6,19.37,South,184,1.0,5.0,88,0.02,,,0.02,VWS V13.01,2013-05-23 20:10:00,
2013-05-23 16:11:00,73.5,69.7,19.37,SSW,206,3.0,6.0,88,0.02,,,0.02,VWS V13.01,2013-05-23 20:11:00,
2013-05-23 16:13:00,73.6,69.8,19.37,SSW,207,0.0,6.0,88,0.02,,,0.02,VWS V13.01,2013-05-23 20:13:00,
2013-05-23 16:14:00,73.6,69.5,19.37,SW,223,7.0,7.0,87,0.02,,,0.02,VWS V13.01,2013-05-23 20:14:00,
2013-05-23 16:15:00,73.7,69.6,19.37,SSW,196,0.0,7.0,87,0.02,,,0.02,VWS V13.01,2013-05-23 20:15:00,
2013-05-23 16:16:00,73.7,69.6,19.37,SSW,196,4.0,7.0,87,0.02,,,0.02,VWS V13.01,2013-05-23 20:16:00,
2013-05-23 16:17:00,73.7,69.3,19.37,SSW,196,0.0,7.0,86,0.02,,,0.02,VWS V13.01,2013-05-23 20:17:00,
2013-05-23 16:18:00,73.8,69.7,19.37,SSW,196,0.0,7.0,87,0.02,,,0.02,VWS V13.01,2013-05-23 20:18:00,
2013-05-23 16:20:00,73.9,69.4,19.37,SSW,200,0.0,7.0,86,0.02,,,0.02,VWS V13.01,2013-05-23 20:20:00,
2013-05-23 16:21:00,73.9,69.8,19.37,South,173,0.0,7.0,87,0.02,,,0.02,VWS V13.01,2013-05-23 20:21:00,
2013-05-23 16:22:00,74.0,69.9,19.37,West,261,3.0,7.0,87,0.02,,,0.02,VWS V13.01,2013-05-23 20:22:00,
2013-05-23 16:24:00,74.1,70.0,19.37,West,261,0.0,7.0,87,0.02,,,0.02,VWS V13.01,2013-05-23 20:24:00,
2013-05-23 16:25:00,74.1,70.0,19.37,West,260,0.0,7.0,87,0.02,,,0.02,VWS V13.01,2013-05-23 20:25:00,
2013-05-23 16:26:00,74.1,70.0,19.37,West,260,2.0,7.0,87,0.02,,,0.02,VWS V13.01,2013-05-23 20:26:00,
2013-05-23 16:27:00,74.1,69.7,19.37,SW,232,0.0,7.0,86,0.02,,,0.02,VWS V13.01,2013-05-23 20:27:00,
2013-05-23 16:29:00,74.2,69.8,19.37,WNW,300,0.0,7.0,86,0.02,,,0.02,VWS V13.01,2013-05-23 20:29:00,
2013-05-23 16:30:00,74.2,69.8,19.37,WNW,300,0.0,7.0,86,0.02,,,0.02,VWS V13.01,2013-05-23 20:30:00,
2013-05-23 16:31:00,74.2,69.8,19.37,WNW,292,0.0,7.0,86,0.02,,,0.02,VWS V13.01,2013-05-23 20:31:00,
2013-05-23 16:32:00,74.2,69.8,19.37,WNW,292,0.0,7.0,86,0.02,,,0.02,VWS V13.01,2013-05-23 20:32:00,
2013-05-23 16:34:00,74.2,69.8,19.37,WNW,292,2.0,7.0,86,0.02,,,0.02,VWS V13.01,2013-05-23 20:34:00,
2013-05-23 16:35:00,74.3,69.8,19.37,WNW,292,0.0,7.0,86,0.02,,,0.02,VWS V13.01,2013-05-23 20:35:00,
2013-05-23 16:36:00,74.3,69.8,19.37,WNW,292,0.0,7.0,86,0.02,,,0.02,VWS V13.01,2013-05-23 20:36:00,
2013-05-23 16:37:00,74.3,69.8,19.37,WNW,292,0.0,7.0,86,0.02,,,0.02,VWS V13.01,2013-05-23 20:37:00,
2013-05-23 16:39:00,74.4,69.9,19.37,South,185,6.0,7.0,86,0.02,,,0.02,VWS V13.01,2013-05-23 20:39:00,
2013-05-23 16:40:00,74.4,69.9,19.37,ENE,68,0.0,7.0,86,0.02,,,0.02,VWS V13.01,2013-05-23 20:40:00,
2013-05-23 16:41:00,74.4,69.6,19.37,South,178,0.0,7.0,85,0.02,,,0.02,VWS V13.01,2013-05-23 20:41:00,
2013-05-23 16:42:00,74.4,69.6,19.37,SSW,212,0.0,7.0,85,0.02,,,0.02,VWS V13.01,2013-05-23 20:42:00,
2013-05-23 16:43:00,74.4,69.6,19.37,SSW,212,0.0,7.0,85,0.02,,,0.02,VWS V13.01,2013-05-23 20:43:00,
2013-05-23 16:45:00,74.5,69.7,19.37,SSW,212,0.0,7.0,85,0.02,,,0.02,VWS V13.01,2013-05-23 20:45:00,
2013-05-23 16:47:00,74.4,69.6,19.37,SSW,207,0.0,7.0,85,0.02,,,0.02,VWS V13.01,2013-05-23 20:47:00,
2013-05-23 16:48:00,74.5,69.7,19.37,SSW,207,0.0,7.0,85,0.02,,,0.02,VWS V13.01,2013-05-23 20:48:00,
2013-05-23 16:50:00,74.5,69.7,19.37,SSW,199,0.0,7.0,85,0.02,,,0.02,VWS V13.01,2013-05-23 20:50:00,
2013-05-23 16:52:00,74.5,69.7,19.37,SW,215,2.0,7.0,85,0.02,,,0.02,VWS V13.01,2013-05-23 20:52:00,
2013-05-23 16:53:00,74.5,69.7,19.37,SSE,157,1.0,7.0,85,0.02,,,0.02,VWS V13.01,2013-05-23 20:53:00,
2013-05-23 16:55:00,74.5,70.0,19.37,WSW,250,4.0,8.0,86,0.02,,,0.03,VWS V13.01,2013-05-23 20:55:00,
2013-05-23 16:56:00,74.5,70.0,19.37,WSW,250,5.0,8.0,86,0.02,,,0.03,VWS V13.01,2013-05-23 20:56:00,
2013-05-23 16:58:00,74.4,69.6,19.37,SSE,161,1.0,8.0,85,0.03,,,0.03,VWS V13.01,2013-05-23 20:58:00,
2013-05-23 17:01:00,74.3,69.8,19.37,SSE,161,0.0,8.0,86,0.03,,,0.03,VWS V13.01,2013-05-23 21:01:00,
2013-05-23 17:03:00,74.2,69.8,19.37,SSE,161,0.0,8.0,86,0.03,,,0.03,VWS V13.01,2013-05-23 21:03:00,
2013-05-23 17:06:00,74.2,70.1,19.37,SSE,161,0.0,2.0,87,0.01,,,0.03,VWS V13.01,2013-05-23 21:06:00,
2013-05-23 17:08:00,74.1,70.0,19.37,SSE,161,0.0,2.0,87,0.01,,,0.03,VWS V13.01,2013-05-23 21:08:00,
2013-05-23 17:11:00,74.0,69.9,19.37,WNW,295,0.0,2.0,87,0.01,,,0.03,VWS V13.01,2013-05-23 21:11:00,
2013-05-23 17:13:00,74.0,69.9,19.37,WNW,295,0.0,2.0,87,0.01,,,0.03,VWS V13.01,2013-05-23 21:13:00,
2013-05-23 17:14:00,74.0,70.2,19.37,WNW,295,0.0,2.0,88,0.01,,,0.03,VWS V13.01,2013-05-23 21:14:00,
2013-05-23 17:16:00,73.9,70.1,19.37,WNW,295,0.0,2.0,88,0.01,,,0.03,VWS V13.01,2013-05-23 21:16:00,
2013-05-23 17:18:00,73.9,70.1,19.37,WNW,295,0.0,2.0,88,0.01,,,0.03,VWS V13.01,2013-05-23 21:18:00,
2013-05-23 17:19:00,73.9,70.1,19.37,WNW,295,1.0,2.0,88,0.01,,,0.03,VWS V13.01,2013-05-23 21:19:00,
2013-05-23 17:21:00,73.8,70.0,19.37,WNW,295,0.0,4.0,88,0.01,,,0.03,VWS V13.01,2013-05-23 21:21:00,
2013-05-23 17:22:00,73.8,70.0,19.37,WNW,295,0.0,4.0,88,0.01,,,0.03,VWS V13.01,2013-05-23 21:22:00,
2013-05-23 17:23:00,73.8,70.0,19.37,WNW,295,0.0,4.0,88,0.01,,,0.03,VWS V13.01,2013-05-23 21:23:00,
2013-05-23 17:24:00,73.8,70.0,19.37,SSW,199,2.0,4.0,88,0.01,,,0.03,VWS V13.01,2013-05-23 21:24:00,
2013-05-23 17:26:00,73.7,70.3,19.37,SW,228,2.0,4.0,89,0.02,,,0.04,VWS V13.01,2013-05-23 21:26:00,
2013-05-23 17:27:00,73.7,70.3,19.37,SW,227,0.0,4.0,89,0.02,,,0.04,VWS V13.01,2013-05-23 21:27:00,
2013-05-23 17:28:00,73.7,70.3,19.37,SW,228,0.0,4.0,89,0.02,,,0.04,VWS V13.01,2013-05-23 21:28:00,
2013-05-23 17:29:00,73.7,70.3,19.37,NNW,333,0.0,4.0,89,0.02,,,0.04,VWS V13.01,2013-05-23 21:29:00,
2013-05-23 17:32:00,73.8,70.4,19.37,NNW,333,0.0,4.0,89,0.02,,,0.04,VWS V13.01,2013-05-23 21:32:00,
2013-05-23 17:33:00,73.8,70.4,19.37,NNW,333,0.0,4.0,89,0.02,,,0.04,VWS V13.01,2013-05-23 21:33:00,
2013-05-23 17:34:00,73.8,70.4,19.37,NNW,333,1.0,4.0,89,0.02,,,0.04,VWS V13.01,2013-05-23 21:34:00,
2013-05-23 17:37:00,73.7,70.3,19.37,WSW,245,0.0,4.0,89,0.02,,,0.04,VWS V13.01,2013-05-23 21:37:00,
2013-05-23 17:38:00,73.7,70.3,19.37,WSW,245,0.0,4.0,89,0.02,,,0.04,VWS V13.01,2013-05-23 21:38:00,
2013-05-23 17:39:00,73.7,70.3,19.37,WSW,246,0.0,4.0,89,0.02,,,0.04,VWS V13.01,2013-05-23 21:39:00,
2013-05-23 17:42:00,73.7,69.9,19.37,SW,217,1.0,6.0,88,0.02,,,0.04,VWS V13.01,2013-05-23 21:42:00,
2013-05-23 17:43:00,73.7,69.9,19.37,SW,217,0.0,6.0,88,0.02,,,0.04,VWS V13.01,2013-05-23 21:43:00,
2013-05-23 17:44:00,73.7,69.9,19.37,SW,217,0.0,6.0,88,0.02,,,0.04,VWS V13.01,2013-05-23 21:44:00,
2013-05-23 17:45:00,73.7,69.9,19.37,WNW,292,2.0,6.0,88,0.02,,,0.04,VWS V13.01,2013-05-23 21:45:00,
2013-05-23 17:47:00,73.6,70.2,19.37,West,263,2.0,6.0,89,0.02,,,0.04,VWS V13.01,2013-05-23 21:47:00,
2013-05-23 17:48:00,73.7,70.3,19.37,West,263,4.0,6.0,89,0.02,,,0.04,VWS V13.01,2013-05-23 21:48:00,
2013-05-23 17:49:00,73.6,70.2,19.37,West,263,0.0,6.0,89,0.02,,,0.04,VWS V13.01,2013-05-23 21:49:00,
2013-05-23 17:50:00,73.6,69.8,19.37,West,263,1.0,6.0,88,0.02,,,0.04,VWS V13.01,2013-05-23 21:50:00,
2013-05-23 17:52:00,73.5,69.7,19.37,West,263,0.0,6.0,88,0.02,,,0.04,VWS V13.01,2013-05-23 21:52:00,
2013-05-23 17:53:00,73.5,69.7,19.37,West,263,0.0,6.0,88,0.02,,,0.04,VWS V13.01,2013-05-23 21:53:00,
2013-05-23 17:54:00,73.5,69.7,19.37,West,263,0.0,6.0,88,0.02,,,0.04,VWS V13.01,2013-05-23 21:54:00,
2013-05-23 17:55:00,73.5,70.1,19.37,West,263,0.0,6.0,89,0.02,,,0.04,VWS V13.01,2013-05-23 21:55:00,
2013-05-23 17:57:00,73.4,70.0,19.37,West,263,0.0,6.0,89,0.02,,,0.04,VWS V13.01,2013-05-23 21:57:00,
2013-05-23 17:59:00,73.4,70.0,19.37,West,263,0.0,6.0,89,0.02,,,0.04,VWS V13.01,2013-05-23 21:59:00,
2013-05-23 18:00:00,73.4,70.0,19.37,West,263,0.0,6.0,89,0.02,,,0.04,VWS V13.01,2013-05-23 22:00:00,
2013-05-23 18:02:00,73.3,69.9,19.37,West,277,0.0,6.0,89,0.02,,,0.04,VWS V13.01,2013-05-23 22:02:00,
2013-05-23 18:04:00,73.3,69.9,19.37,West,278,0.0,0.0,89,0.02,,,0.04,VWS V13.01,2013-05-23 22:04:00,
2013-05-23 18:05:00,73.3,69.9,19.37,West,277,0.0,4.0,89,0.01,,,0.04,VWS V13.01,2013-05-23 22:05:00,
2013-05-23 18:06:00,73.3,69.9,19.37,West,278,0.0,4.0,89,0.01,,,0.04,VWS V13.01,2013-05-23 22:06:00,
2013-05-23 18:08:00,73.3,69.9,19.37,West,277,0.0,4.0,89,0.01,,,0.04,VWS V13.01,2013-05-23 22:08:00,
2013-05-23 18:09:00,73.3,69.9,19.37,West,277,0.0,4.0,89,0.01,,,0.04,VWS V13.01,2013-05-23 22:09:00,
2013-05-23 18:10:00,73.3,69.9,19.37,West,277,0.0,4.0,89,0.01,,,0.04,VWS V13.01,2013-05-23 22:10:00,
2013-05-23 18:11:00,73.3,69.9,19.37,West,278,0.0,4.0,89,0.01,,,0.04,VWS V13.01,2013-05-23 22:11:00,
2013-05-23 18:13:00,73.2,69.8,19.37,West,278,0.0,4.0,89,0.01,,,0.04,VWS V13.01,2013-05-23 22:13:00,
2013-05-23 18:14:00,73.2,69.8,19.37,West,277,0.0,4.0,89,0.01,,,0.04,VWS V13.01,2013-05-23 22:14:00,
2013-05-23 18:15:00,73.2,69.8,19.37,West,278,0.0,4.0,89,0.01,,,0.04,VWS V13.01,2013-05-23 22:15:00,
2013-05-23 18:16:00,73.2,69.8,19.37,West,278,0.0,4.0,89,0.01,,,0.04,VWS V13.01,2013-05-23 22:16:00,
2013-05-23 18:18:00,73.2,69.8,19.37,West,278,0.0,4.0,89,0.01,,,0.04,VWS V13.01,2013-05-23 22:18:00,
2013-05-23 18:19:00,73.2,69.8,19.37,West,277,0.0,4.0,89,0.01,,,0.04,VWS V13.01,2013-05-23 22:19:00,
2013-05-23 18:20:00,73.2,69.8,19.37,West,278,0.0,4.0,89,0.01,,,0.04,VWS V13.01,2013-05-23 22:20:00,
2013-05-23 18:21:00,73.2,69.8,19.37,West,277,0.0,4.0,89,0.01,,,0.04,VWS V13.01,2013-05-23 22:21:00,
2013-05-23 18:22:00,73.2,69.8,19.37,West,278,0.0,4.0,89,0.01,,,0.04,VWS V13.01,2013-05-23 22:22:00,
2013-05-23 18:23:00,73.2,70.1,19.37,West,277,0.0,4.0,90,0.01,,,0.04,VWS V13.01,2013-05-23 22:23:00,
2013-05-23 18:24:00,73.2,70.1,19.37,West,278,0.0,4.0,90,0.01,,,0.04,VWS V13.01,2013-05-23 22:24:00,
2013-05-23 18:25:00,73.2,70.1,19.37,West,278,0.0,4.0,90,0.01,,,0.04,VWS V13.01,2013-05-23 22:25:00,
2013-05-23 18:26:00,73.2,70.1,19.37,West,277,0.0,4.0,90,0.01,,,0.04,VWS V13.01,2013-05-23 22:26:00,
2013-05-23 18:27:00,73.2,70.1,19.37,West,278,1.0,4.0,90,0.01,,,0.04,VWS V13.01,2013-05-23 22:27:00,
2013-05-23 18:28:00,73.2,70.1,19.37,West,278,0.0,4.0,90,0.01,,,0.04,VWS V13.01,2013-05-23 22:28:00,
2013-05-23 18:29:00,73.2,70.1,19.37,West,277,0.0,4.0,90,0.01,,,0.04,VWS V13.01,2013-05-23 22:29:00,
2013-05-23 18:30:00,73.2,70.1,19.37,West,277,0.0,4.0,90,0.01,,,0.04,VWS V13.01,2013-05-23 22:30:00,
2013-05-23 18:31:00,73.2,70.1,19.37,West,278,0.0,4.0,90,0.01,,,0.04,VWS V13.01,2013-05-23 22:31:00,
2013-05-23 18:32:00,73.3,70.2,19.37,West,278,0.0,4.0,90,0.01,,,0.04,VWS V13.01,2013-05-23 22:32:00,
2013-05-23 18:33:00,73.2,70.1,19.37,West,278,0.0,4.0,90,0.01,,,0.04,VWS V13.01,2013-05-23 22:33:00,
2013-05-23 18:35:00,73.3,70.2,19.37,West,278,0.0,4.0,90,0.01,,,0.04,VWS V13.01,2013-05-23 22:35:00,
2013-05-23 18:37:00,73.3,70.2,19.37,West,278,0.0,4.0,90,0.01,,,0.04,VWS V13.01,2013-05-23 22:37:00,
2013-05-23 18:38:00,73.3,70.2,19.37,West,277,0.0,4.0,90,0.01,,,0.04,VWS V13.01,2013-05-23 22:38:00,
2013-05-23 18:40:00,73.3,70.2,19.37,West,277,0.0,4.0,90,0.01,,,0.04,VWS V13.01,2013-05-23 22:40:00,
2013-05-23 18:42:00,73.4,70.3,19.37,West,278,0.0,4.0,90,0.01,,,0.04,VWS V13.01,2013-05-23 22:42:00,
2013-05-23 18:44:00,73.4,70.3,19.37,West,277,0.0,4.0,90,0.05,,,0.10,VWS V13.01,2013-05-23 22:44:00,
2013-05-23 18:45:00,73.4,70.3,19.37,West,278,0.0,4.0,90,0.09,,,0.12,VWS V13.01,2013-05-23 22:45:00,
2013-05-23 18:47:00,73.4,70.6,19.37,West,278,1.0,4.0,91,0.12,,,0.15,VWS V13.01,2013-05-23 22:47:00,
2013-05-23 18:48:00,73.4,70.6,19.37,West,278,1.0,4.0,91,0.12,,,0.15,VWS V13.01,2013-05-23 22:48:00,
2013-05-23 18:49:00,73.3,70.5,19.37,West,277,2.0,4.0,91,0.13,,,0.16,VWS V13.01,2013-05-23 22:49:00,
2013-05-23 18:50:00,73.3,70.5,19.37,West,278,0.0,4.0,91,0.15,,,0.18,VWS V13.01,2013-05-23 22:50:00,
2013-05-23 18:52:00,73.1,70.6,19.37,South,172,1.0,4.0,92,0.27,,,0.32,VWS V13.01,2013-05-23 22:52:00,
2013-05-23 18:53:00,73.0,70.5,19.37,South,172,0.0,4.0,92,0.34,,,0.39,VWS V13.01,2013-05-23 22:53:00,
2013-05-23 18:54:00,72.9,70.4,19.37,NE,39,0.0,4.0,92,0.40,,,0.43,VWS V13.01,2013-05-23 22:54:00,
2013-05-23 18:55:00,72.7,70.2,19.37,North,360,2.0,4.0,92,0.40,,,0.44,VWS V13.01,2013-05-23 22:55:00,
2013-05-23 18:57:00,72.2,69.1,19.37,SSW,209,0.0,4.0,90,0.46,,,0.50,VWS V13.01,2013-05-23 22:57:00,
2013-05-23 18:58:00,71.9,68.8,19.37,SSW,209,0.0,4.0,90,0.47,,,0.51,VWS V13.01,2013-05-23 22:58:00,
2013-05-23 18:59:00,71.6,68.5,19.37,SSW,208,0.0,4.0,90,0.52,,,0.57,VWS V13.01,2013-05-23 22:59:00,
2013-05-23 19:00:00,71.5,68.4,19.37,SSW,208,0.0,4.0,90,0.52,,,0.60,VWS V13.01,2013-05-23 23:00:00,
2013-05-23 19:02:00,71.1,68.0,19.37,SSW,208,0.0,4.0,90,0.60,,,0.63,VWS V13.01,2013-05-23 23:02:00,
2013-05-23 19:03:00,70.9,67.8,19.37,SSW,207,0.0,4.0,90,0.60,,,0.63,VWS V13.01,2013-05-23 23:03:00,
2013-05-23 19:05:00,70.6,67.8,19.37,SSW,207,0.0,0.0,91,0.59,,,0.63,VWS V13.01,2013-05-23 23:05:00,
2013-05-23 19:07:00,70.3,67.6,16.36,SSW,208,0.0,0.0,91,0.59,,,0.63,VWS V13.01,2013-05-23 23:07:00,
2013-05-23 19:08:00,70.2,67.8,16.36,SSW,207,0.0,3.0,92,0.59,,,0.63,VWS V13.01,2013-05-23 23:08:00,
2013-05-23 19:10:00,70.1,67.7,16.36,SSW,207,0.0,3.0,92,0.59,,,0.63,VWS V13.01,2013-05-23 23:10:00,
2013-05-23 19:13:00,69.9,67.8,16.36,SSW,208,0.0,3.0,93,0.59,,,0.63,VWS V13.01,2013-05-23 23:13:00,
2013-05-23 19:14:00,69.9,67.8,16.36,SSW,208,0.0,3.0,93,0.59,,,0.63,VWS V13.01,2013-05-23 23:14:00,
2013-05-23 19:15:00,69.9,67.8,16.36,SSW,208,0.0,3.0,93,0.59,,,0.63,VWS V13.01,2013-05-23 23:15:00,
2013-05-23 19:16:00,69.9,67.8,16.36,SSW,207,0.0,3.0,93,0.59,,,0.63,VWS V13.01,2013-05-23 23:16:00,
2013-05-23 19:18:00,69.8,67.7,16.36,SSW,208,0.0,3.0,93,0.59,,,0.63,VWS V13.01,2013-05-23 23:18:00,
2013-05-23 19:19:00,69.8,68.0,16.36,SSW,207,0.0,3.0,94,0.59,,,0.63,VWS V13.01,2013-05-23 23:19:00,
2013-05-23 19:20:00,69.8,68.0,16.36,SSW,208,0.0,3.0,94,0.59,,,0.63,VWS V13.01,2013-05-23 23:20:00,
2013-05-23 19:21:00,69.9,68.1,16.36,SSW,207,0.0,3.0,94,0.59,,,0.63,VWS V13.01,2013-05-23 23:21:00,
2013-05-23 19:23:00,69.9,68.1,16.36,SSW,208,1.0,3.0,94,0.59,,,0.63,VWS V13.01,2013-05-23 23:23:00,
2013-05-23 19:24:00,69.9,68.1,16.36,SSW,207,0.0,3.0,94,0.59,,,0.63,VWS V13.01,2013-05-23 23:24:00,
2013-05-23 19:25:00,69.9,68.1,16.36,SSW,208,0.0,3.0,94,0.59,,,0.63,VWS V13.01,2013-05-23 23:25:00,
2013-05-23 19:26:00,69.9,68.1,16.36,SSW,208,0.0,3.0,94,0.59,,,0.63,VWS V13.01,2013-05-23 23:26:00,
2013-05-23 19:28:00,69.9,68.1,16.36,SSW,207,0.0,3.0,94,0.59,,,0.63,VWS V13.01,2013-05-23 23:28:00,
2013-05-23 19:29:00,69.9,68.4,16.36,SSW,207,0.0,3.0,95,0.59,,,0.63,VWS V13.01,2013-05-23 23:29:00,
2013-05-23 19:30:00,69.9,68.4,16.36,SSW,208,0.0,3.0,95,0.59,,,0.63,VWS V13.01,2013-05-23 23:30:00,
2013-05-23 19:31:00,69.9,68.4,16.36,SSW,208,0.0,3.0,95,0.59,,,0.63,VWS V13.01,2013-05-23 23:31:00,
2013-05-23 19:33:00,70.0,68.5,16.36,SSW,207,0.0,3.0,95,0.59,,,0.63,VWS V13.01,2013-05-23 23:33:00,
2013-05-23 19:35:00,70.0,68.5,16.36,SSW,208,0.0,3.0,95,0.59,,,0.63,VWS V13.01,2013-05-23 23:35:00,
2013-05-23 19:36:00,70.1,68.6,16.36,SSW,208,0.0,3.0,95,0.59,,,0.63,VWS V13.01,2013-05-23 23:36:00,
2013-05-23 19:38:00,70.1,68.6,16.36,SSW,207,0.0,3.0,95,0.59,,,0.63,VWS V13.01,2013-05-23 23:38:00,
2013-05-23 19:40:00,70.1,68.6,16.36,SSW,207,0.0,3.0,95,0.59,,,0.63,VWS V13.01,2013-05-23 23:40:00,
2013-05-23 19:41:00,70.1,68.6,16.36,SSW,207,0.0,3.0,95,0.59,,,0.63,VWS V13.01,2013-05-23 23:41:00,
2013-05-23 19:44:00,70.1,68.6,16.36,SSW,208,0.0,3.0,95,0.59,,,0.63,VWS V13.01,2013-05-23 23:44:00,
2013-05-23 19:45:00,70.1,68.6,16.36,SSW,208,0.0,3.0,95,0.59,,,0.63,VWS V13.01,2013-05-23 23:45:00,
2013-05-23 19:46:00,70.1,68.6,16.36,SSW,208,0.0,3.0,95,0.59,,,0.63,VWS V13.01,2013-05-23 23:46:00,
2013-05-23 19:49:00,70.1,68.6,16.36,SSW,208,0.0,3.0,95,0.59,,,0.63,VWS V13.01,2013-05-23 23:49:00,
2013-05-23 19:50:00,70.1,68.6,16.36,SSW,207,0.0,3.0,95,0.59,,,0.63,VWS V13.01,2013-05-23 23:50:00,
2013-05-23 19:51:00,70.1,68.6,16.36,SSW,208,0.0,3.0,95,0.59,,,0.63,VWS V13.01,2013-05-23 23:51:00,
2013-05-23 19:54:00,70.1,68.6,16.36,SSW,208,0.0,3.0,95,0.59,,,0.63,VWS V13.01,2013-05-23 23:54:00,
2013-05-23 19:55:00,70.0,68.5,16.36,SSW,208,0.0,3.0,95,0.59,,,0.63,VWS V13.01,2013-05-23 23:55:00,
2013-05-23 19:56:00,70.0,68.5,16.36,SSW,207,0.0,3.0,95,0.59,,,0.63,VWS V13.01,2013-05-23 23:56:00,
2013-05-23 19:59:00,70.0,68.5,16.36,SSW,208,0.0,3.0,95,0.59,,,0.63,VWS V13.01,2013-05-23 23:59:00,
2013-05-23 20:00:00,70.0,68.5,16.36,SSW,208,0.0,3.0,95,0.59,,,0.63,VWS V13.01,2013-05-24 00:00:00,
2013-05-23 20:01:00,70.0,68.5,16.36,SSW,208,0.0,3.0,95,0.59,,,0.63,VWS V13.01,2013-05-24 00:01:00,
2013-05-23 20:02:00,70.0,68.5,16.36,SSW,208,0.0,3.0,95,0.59,,,0.63,VWS V13.01,2013-05-24 00:02:00,
2013-05-23 20:04:00,70.0,68.5,16.36,SSW,207,0.0,0.0,95,0.59,,,0.63,VWS V13.01,2013-05-24 00:04:00,
2013-05-23 20:06:00,70.0,68.5,16.36,SSW,208,0.0,0.0,95,0.00,,,0.63,VWS V13.01,2013-05-24 00:06:00,
2013-05-23 20:07:00,70.0,68.5,16.36,SSW,208,0.0,0.0,95,0.00,,,0.63,VWS V13.01,2013-05-24 00:07:00,
2013-05-23 20:09:00,69.9,68.4,16.36,SSW,208,0.0,0.0,95,0.00,,,0.63,VWS V13.01,2013-05-24 00:09:00,
2013-05-23 20:11:00,69.9,68.4,16.36,SSW,208,0.0,0.0,95,0.00,,,0.63,VWS V13.01,2013-05-24 00:11:00,
2013-05-23 20:12:00,69.9,68.4,16.36,SSW,208,0.0,0.0,95,0.00,,,0.63,VWS V13.01,2013-05-24 00:12:00,
2013-05-23 20:14:00,69.9,68.4,16.36,SSW,208,0.0,0.0,95,0.00,,,0.63,VWS V13.01,2013-05-24 00:14:00,
2013-05-23 20:16:00,69.8,68.3,16.36,SSW,207,0.0,0.0,95,0.00,,,0.63,VWS V13.01,2013-05-24 00:16:00,
2013-05-23 20:17:00,69.8,68.3,16.36,SSW,208,0.0,0.0,95,0.00,,,0.63,VWS V13.01,2013-05-24 00:17:00,
2013-05-23 20:19:00,69.8,68.3,19.37,SSW,208,0.0,0.0,95,0.00,,,0.63,VWS V13.01,2013-05-24 00:19:00,
2013-05-23 20:21:00,69.7,68.2,19.37,SSW,208,0.0,0.0,95,0.00,,,0.63,VWS V13.01,2013-05-24 00:21:00,
2013-05-23 20:22:00,69.7,68.2,19.37,SSW,208,0.0,0.0,95,0.00,,,0.63,VWS V13.01,2013-05-24 00:22:00,
2013-05-23 20:24:00,69.7,68.2,19.37,SSW,207,0.0,0.0,95,0.00,,,0.63,VWS V13.01,2013-05-24 00:24:00,
2013-05-23 20:26:00,69.7,68.2,19.37,SSW,207,0.0,0.0,95,0.00,,,0.63,VWS V13.01,2013-05-24 00:26:00,
2013-05-23 20:27:00,69.6,68.1,20.96,SSW,208,0.0,0.0,95,0.00,,,0.63,VWS V13.01,2013-05-24 00:27:00,
2013-05-23 20:29:00,69.6,68.1,20.96,SSW,208,0.0,1.0,95,0.00,,,0.63,VWS V13.01,2013-05-24 00:29:00,
2013-05-23 20:31:00,69.5,68.0,20.96,SSW,208,0.0,1.0,95,0.00,,,0.63,VWS V13.01,2013-05-24 00:31:00,
2013-05-23 20:32:00,69.5,68.0,20.96,SSW,208,0.0,1.0,95,0.00,,,0.63,VWS V13.01,2013-05-24 00:32:00,
2013-05-23 20:35:00,69.4,67.9,20.96,SSW,208,0.0,1.0,95,0.00,,,0.63,VWS V13.01,2013-05-24 00:35:00,
2013-05-23 20:36:00,69.4,67.9,20.96,SSW,207,0.0,1.0,95,0.00,,,0.63,VWS V13.01,2013-05-24 00:36:00,
2013-05-23 20:37:00,69.3,67.8,20.96,SSW,207,0.0,1.0,95,0.00,,,0.63,VWS V13.01,2013-05-24 00:37:00,
2013-05-23 20:38:00,69.3,67.8,19.37,SSW,207,0.0,1.0,95,0.00,,,0.63,VWS V13.01,2013-05-24 00:38:00,
2013-05-23 20:40:00,69.3,67.8,19.37,SSW,208,0.0,1.0,95,0.00,,,0.63,VWS V13.01,2013-05-24 00:40:00,
2013-05-23 20:41:00,69.2,67.7,19.37,SSW,207,0.0,1.0,95,0.00,,,0.63,VWS V13.01,2013-05-24 00:41:00,
2013-05-23 20:42:00,69.2,67.7,19.37,SSW,207,0.0,1.0,95,0.00,,,0.63,VWS V13.01,2013-05-24 00:42:00,
2013-05-23 20:43:00,69.2,67.7,19.37,SSW,207,0.0,1.0,95,0.00,,,0.63,VWS V13.01,2013-05-24 00:43:00,
2013-05-23 20:45:00,69.1,67.6,19.37,SSW,207,0.0,3.0,95,0.00,,,0.63,VWS V13.01,2013-05-24 00:45:00,
2013-05-23 20:46:00,69.1,67.6,19.37,SSW,208,0.0,3.0,95,0.00,,,0.63,VWS V13.01,2013-05-24 00:46:00,
2013-05-23 20:48:00,69.0,67.5,19.37,SSW,208,1.0,3.0,95,0.00,,,0.63,VWS V13.01,2013-05-24 00:48:00,
2013-05-23 20:50:00,68.9,67.4,19.37,SSW,208,0.0,4.0,95,0.00,,,0.63,VWS V13.01,2013-05-24 00:50:00,
2013-05-23 20:52:00,68.9,67.4,19.37,SSW,207,0.0,4.0,95,0.00,,,0.63,VWS V13.01,2013-05-24 00:52:00,
2013-05-23 20:53:00,68.8,67.3,19.37,NW,322,1.0,5.0,95,0.00,,,0.63,VWS V13.01,2013-05-24 00:53:00,
2013-05-23 20:55:00,68.7,67.2,19.37,NW,323,0.0,5.0,95,0.00,,,0.63,VWS V13.01,2013-05-24 00:55:00,
2013-05-23 20:57:00,68.7,66.9,19.37,NW,323,0.0,5.0,94,0.00,,,0.63,VWS V13.01,2013-05-24 00:57:00,
2013-05-23 20:58:00,68.7,66.9,19.37,NW,322,0.0,5.0,94,0.00,,,0.63,VWS V13.01,2013-05-24 00:58:00,
2013-05-23 21:00:00,68.6,66.8,19.37,NW,323,0.0,5.0,94,0.00,,,0.63,VWS V13.01,2013-05-24 01:00:00,
2013-05-23 21:02:00,68.6,66.8,19.37,NW,323,0.0,5.0,94,0.00,,,0.63,VWS V13.01,2013-05-24 01:02:00,
2013-05-23 21:03:00,68.6,66.8,19.37,NW,323,0.0,5.0,94,0.00,,,0.63,VWS V13.01,2013-05-24 01:03:00,
2013-05-23 21:05:00,68.6,66.8,19.37,NW,323,0.0,0.0,94,0.00,,,0.63,VWS V13.01,2013-05-24 01:05:00,
2013-05-23 21:07:00,68.5,66.7,19.37,NW,322,0.0,0.0,94,0.00,,,0.63,VWS V13.01,2013-05-24 01:07:00,
2013-05-23 21:08:00,68.5,66.7,19.37,NW,323,0.0,0.0,94,0.00,,,0.63,VWS V13.01,2013-05-24 01:08:00,
2013-05-23 21:10:00,68.5,66.7,19.37,NW,323,0.0,0.0,94,0.00,,,0.63,VWS V13.01,2013-05-24 01:10:00,
2013-05-23 21:12:00,68.5,66.7,19.37,NW,323,0.0,0.0,94,0.00,,,0.63,VWS V13.01,2013-05-24 01:12:00,
2013-05-23 21:13:00,68.5,66.7,19.37,NW,322,0.0,0.0,94,0.00,,,0.63,VWS V13.01,2013-05-24 01:13:00,
2013-05-23 21:14:00,68.5,66.7,19.37,NW,322,0.0,0.0,94,0.00,,,0.63,VWS V13.01,2013-05-24 01:14:00,
2013-05-23 21:15:00,68.5,66.7,19.37,NW,323,0.0,0.0,94,0.00,,,0.63,VWS V13.01,2013-05-24 01:15:00,
2013-05-23 21:17:00,68.5,67.0,19.37,NW,323,0.0,0.0,95,0.00,,,0.63,VWS V13.01,2013-05-24 01:17:00,
2013-05-23 21:18:00,68.5,67.0,19.37,NW,323,0.0,0.0,95,0.00,,,0.63,VWS V13.01,2013-05-24 01:18:00,
2013-05-23 21:19:00,68.5,67.0,19.37,NW,323,0.0,0.0,95,0.00,,,0.63,VWS V13.01,2013-05-24 01:19:00,
2013-05-23 21:20:00,68.5,67.0,19.37,NW,323,0.0,0.0,95,0.00,,,0.63,VWS V13.01,2013-05-24 01:20:00,
2013-05-23 21:22:00,68.4,66.9,19.37,NW,323,0.0,0.0,95,0.00,,,0.63,VWS V13.01,2013-05-24 01:22:00,
2013-05-23 21:24:00,68.4,66.9,19.37,NW,322,0.0,0.0,95,0.00,,,0.63,VWS V13.01,2013-05-24 01:24:00,
2013-05-23 21:26:00,68.4,66.9,19.37,NW,323,0.0,0.0,95,0.00,,,0.63,VWS V13.01,2013-05-24 01:26:00,
2013-05-23 21:28:00,68.3,66.8,19.37,NW,322,0.0,0.0,95,0.00,,,0.63,VWS V13.01,2013-05-24 01:28:00,
2013-05-23 21:29:00,68.3,66.8,19.37,NW,323,0.0,0.0,95,0.00,,,0.63,VWS V13.01,2013-05-24 01:29:00,
2013-05-23 21:31:00,68.3,66.8,19.37,NW,323,0.0,0.0,95,0.00,,,0.63,VWS V13.01,2013-05-24 01:31:00,
2013-05-23 21:33:00,68.3,66.8,19.37,NW,323,0.0,0.0,95,0.00,,,0.63,VWS V13.01,2013-05-24 01:33:00,
2013-05-23 21:34:00,68.3,66.8,19.37,NW,322,0.0,0.0,95,0.00,,,0.63,VWS V13.01,2013-05-24 01:34:00,
2013-05-23 21:36:00,68.3,66.8,19.37,NW,323,0.0,0.0,95,0.00,,,0.63,VWS V13.01,2013-05-24 01:36:00,
2013-05-23 21:38:00,68.3,66.8,19.37,NW,322,0.0,0.0,95,0.00,,,0.63,VWS V13.01,2013-05-24 01:38:00,
2013-05-23 21:39:00,68.3,66.8,19.37,NW,322,0.0,0.0,95,0.00,,,0.63,VWS V13.01,2013-05-24 01:39:00,
2013-05-23 21:40:00,68.3,66.8,19.37,NW,323,0.0,0.0,95,0.00,,,0.63,VWS V13.01,2013-05-24 01:40:00,
2013-05-23 21:41:00,68.3,66.8,19.37,NW,323,0.0,0.0,95,0.00,,,0.63,VWS V13.01,2013-05-24 01:41:00,
2013-05-23 21:43:00,68.2,66.7,19.37,NW,323,0.0,0.0,95,0.00,,,0.63,VWS V13.01,2013-05-24 01:43:00,
2013-05-23 21:44:00,68.2,66.7,19.37,NW,322,0.0,0.0,95,0.00,,,0.63,VWS V13.01,2013-05-24 01:44:00,
2013-05-23 21:45:00,68.3,66.8,19.37,NW,322,0.0,0.0,95,0.00,,,0.63,VWS V13.01,2013-05-24 01:45:00,
2013-05-23 21:46:00,68.2,66.7,19.37,NW,323,0.0,1.0,95,0.00,,,0.63,VWS V13.01,2013-05-24 01:46:00,
2013-05-23 21:49:00,68.3,66.8,19.37,NW,322,0.0,1.0,95,0.00,,,0.63,VWS V13.01,2013-05-24 01:49:00,
2013-05-23 21:50:00,68.2,66.7,19.37,NW,323,0.0,1.0,95,0.00,,,0.63,VWS V13.01,2013-05-24 01:50:00,
2013-05-23 21:51:00,68.2,66.7,19.37,NW,323,0.0,1.0,95,0.00,,,0.63,VWS V13.01,2013-05-24 01:51:00,
2013-05-23 21:54:00,68.2,66.7,19.37,NW,323,0.0,1.0,95,0.00,,,0.63,VWS V13.01,2013-05-24 01:54:00,
2013-05-23 21:55:00,68.2,66.7,19.37,NW,323,0.0,1.0,95,0.00,,,0.63,VWS V13.01,2013-05-24 01:55:00,
2013-05-23 21:56:00,68.2,66.7,19.37,NW,323,0.0,1.0,95,0.00,,,0.63,VWS V13.01,2013-05-24 01:56:00,
2013-05-23 21:57:00,68.1,66.6,19.37,NW,323,0.0,1.0,95,0.00,,,0.63,VWS V13.01,2013-05-24 01:57:00,
2013-05-23 21:59:00,68.2,66.7,19.37,NW,322,0.0,1.0,95,0.00,,,0.63,VWS V13.01,2013-05-24 01:59:00,
2013-05-23 22:00:00,68.2,66.7,19.37,NW,322,0.0,1.0,95,0.00,,,0.63,VWS V13.01,2013-05-24 02:00:00,
2013-05-23 22:02:00,68.1,66.6,19.37,NW,323,0.0,1.0,95,0.00,,,0.63,VWS V13.01,2013-05-24 02:02:00,
2013-05-23 22:04:00,68.1,66.6,19.37,SSE,150,0.0,2.0,95,0.00,,,0.63,VWS V13.01,2013-05-24 02:04:00,
2013-05-23 22:05:00,68.2,66.7,19.37,SSE,150,0.0,2.0,95,0.00,,,0.63,VWS V13.01,2013-05-24 02:05:00,
2013-05-23 22:06:00,68.1,66.6,19.37,SSE,150,0.0,2.0,95,0.00,,,0.63,VWS V13.01,2013-05-24 02:06:00,
2013-05-23 22:07:00,68.2,66.7,19.37,SSE,149,1.0,2.0,95,0.00,,,0.63,VWS V13.01,2013-05-24 02:07:00,
2013-05-23 22:09:00,68.1,66.6,19.37,SE,136,0.0,2.0,95,0.00,,,0.63,VWS V13.01,2013-05-24 02:09:00,
2013-05-23 22:10:00,68.1,66.6,19.37,SE,136,1.0,2.0,95,0.00,,,0.63,VWS V13.01,2013-05-24 02:10:00,
2013-05-23 22:11:00,68.1,66.6,19.65,SE,136,0.0,4.0,95,0.00,,,0.63,VWS V13.01,2013-05-24 02:11:00,
2013-05-23 22:12:00,68.1,66.6,19.65,SE,136,0.0,4.0,95,0.00,,,0.63,VWS V13.01,2013-05-24 02:12:00,
2013-05-23 22:15:00,68.1,66.3,19.65,SE,136,0.0,4.0,94,0.00,,,0.63,VWS V13.01,2013-05-24 02:15:00,
2013-05-23 22:16:00,68.1,66.3,19.65,SE,136,0.0,4.0,94,0.00,,,0.63,VWS V13.01,2013-05-24 02:16:00,
2013-05-23 22:17:00,68.1,66.3,19.65,SE,136,0.0,4.0,94,0.00,,,0.63,VWS V13.01,2013-05-24 02:17:00,
2013-05-23 22:20:00,68.1,66.3,19.65,SE,136,0.0,4.0,94,0.00,,,0.63,VWS V13.01,2013-05-24 02:20:00,
2013-05-23 22:21:00,68.1,66.3,19.65,SE,136,0.0,4.0,94,0.00,,,0.63,VWS V13.01,2013-05-24 02:21:00,
2013-05-23 22:22:00,68.2,66.4,19.65,SE,136,0.0,4.0,94,0.00,,,0.63,VWS V13.01,2013-05-24 02:22:00,
2013-05-23 22:25:00,68.2,66.4,19.65,SE,136,0.0,4.0,94,0.00,,,0.63,VWS V13.01,2013-05-24 02:25:00,
2013-05-23 22:26:00,68.2,66.4,19.65,SE,136,0.0,4.0,94,0.00,,,0.63,VWS V13.01,2013-05-24 02:26:00,
2013-05-23 22:27:00,68.2,66.4,19.65,SE,136,0.0,4.0,94,0.00,,,0.63,VWS V13.01,2013-05-24 02:27:00,
2013-05-23 22:30:00,68.2,66.4,19.65,SE,136,0.0,4.0,94,0.00,,,0.63,VWS V13.01,2013-05-24 02:30:00,
2013-05-23 22:31:00,68.2,66.4,19.65,SE,136,0.0,4.0,94,0.00,,,0.63,VWS V13.01,2013-05-24 02:31:00,
2013-05-23 22:32:00,68.2,66.4,19.65,SE,136,0.0,4.0,94,0.00,,,0.63,VWS V13.01,2013-05-24 02:32:00,
2013-05-23 22:35:00,68.2,66.4,19.65,SE,136,0.0,4.0,94,0.00,,,0.63,VWS V13.01,2013-05-24 02:35:00,
2013-05-23 22:36:00,68.2,66.4,19.65,SE,136,0.0,4.0,94,0.00,,,0.63,VWS V13.01,2013-05-24 02:36:00,
2013-05-23 22:38:00,68.2,66.4,19.65,SE,136,0.0,4.0,94,0.00,,,0.63,VWS V13.01,2013-05-24 02:38:00,
2013-05-23 22:41:00,68.2,66.4,19.65,SE,136,0.0,4.0,94,0.00,,,0.63,VWS V13.01,2013-05-24 02:41:00,
2013-05-23 22:42:00,68.2,66.4,19.65,SE,136,0.0,4.0,94,0.00,,,0.63,VWS V13.01,2013-05-24 02:42:00,
2013-05-23 22:43:00,68.2,66.4,19.65,SE,136,0.0,4.0,94,0.00,,,0.63,VWS V13.01,2013-05-24 02:43:00,
2013-05-23 22:46:00,68.2,66.4,19.65,SE,136,0.0,4.0,94,0.00,,,0.63,VWS V13.01,2013-05-24 02:46:00,
2013-05-23 22:47:00,68.2,66.4,19.65,SE,136,0.0,4.0,94,0.00,,,0.63,VWS V13.01,2013-05-24 02:47:00,
2013-05-23 22:48:00,68.2,66.4,19.65,SE,136,0.0,4.0,94,0.00,,,0.63,VWS V13.01,2013-05-24 02:48:00,
2013-05-23 22:51:00,68.2,66.4,19.65,SE,136,0.0,4.0,94,0.00,,,0.63,VWS V13.01,2013-05-24 02:51:00,
2013-05-23 22:52:00,68.2,66.4,19.65,SE,136,0.0,4.0,94,0.00,,,0.63,VWS V13.01,2013-05-24 02:52:00,
2013-05-23 22:53:00,68.2,66.4,19.65,SE,136,0.0,4.0,94,0.00,,,0.63,VWS V13.01,2013-05-24 02:53:00,
2013-05-23 22:56:00,68.2,66.4,19.65,SE,136,0.0,4.0,94,0.00,,,0.63,VWS V13.01,2013-05-24 02:56:00,
2013-05-23 22:57:00,68.2,66.4,19.65,SE,136,0.0,4.0,94,0.00,,,0.63,VWS V13.01,2013-05-24 02:57:00,
2013-05-23 22:58:00,68.2,66.4,19.65,SE,136,0.0,4.0,94,0.00,,,0.63,VWS V13.01,2013-05-24 02:58:00,
2013-05-23 23:01:00,68.2,66.4,19.65,SE,136,0.0,4.0,94,0.00,,,0.63,VWS V13.01,2013-05-24 03:01:00,
2013-05-23 23:02:00,68.2,66.4,19.65,SE,136,0.0,4.0,94,0.00,,,0.63,VWS V13.01,2013-05-24 03:02:00,
2013-05-23 23:03:00,68.2,66.4,19.65,SE,136,0.0,4.0,94,0.00,,,0.63,VWS V13.01,2013-05-24 03:03:00,
2013-05-23 23:06:00,68.2,66.4,19.65,SE,136,0.0,0.0,94,0.00,,,0.63,VWS V13.01,2013-05-24 03:06:00,
2013-05-23 23:08:00,68.1,66.3,19.65,SE,136,0.0,1.0,94,0.00,,,0.63,VWS V13.01,2013-05-24 03:08:00,
2013-05-23 23:09:00,68.1,66.3,19.65,SE,136,0.0,1.0,94,0.00,,,0.63,VWS V13.01,2013-05-24 03:09:00,
2013-05-23 23:11:00,68.1,66.3,19.65,SE,136,0.0,1.0,94,0.00,,,0.63,VWS V13.01,2013-05-24 03:11:00,
2013-05-23 23:12:00,68.2,66.4,19.65,SE,136,0.0,1.0,94,0.00,,,0.63,VWS V13.01,2013-05-24 03:12:00,
2013-05-23 23:13:00,68.1,66.3,19.65,SE,136,0.0,1.0,94,0.00,,,0.63,VWS V13.01,2013-05-24 03:13:00,
2013-05-23 23:14:00,68.2,66.4,19.65,SE,136,0.0,1.0,94,0.00,,,0.63,VWS V13.01,2013-05-24 03:14:00,
2013-05-23 23:16:00,68.2,66.4,19.65,SE,136,0.0,1.0,94,0.00,,,0.63,VWS V13.01,2013-05-24 03:16:00,
2013-05-23 23:17:00,68.1,66.3,19.65,SE,136,0.0,1.0,94,0.00,,,0.63,VWS V13.01,2013-05-24 03:17:00,
2013-05-23 23:18:00,68.2,66.4,19.65,SE,136,0.0,1.0,94,0.00,,,0.63,VWS V13.01,2013-05-24 03:18:00,
2013-05-23 23:19:00,68.2,66.4,19.65,SE,136,0.0,1.0,94,0.00,,,0.63,VWS V13.01,2013-05-24 03:19:00,
2013-05-23 23:21:00,68.2,66.4,19.65,SE,136,0.0,1.0,94,0.00,,,0.63,VWS V13.01,2013-05-24 03:21:00,
2013-05-23 23:22:00,68.1,66.3,19.65,SE,136,0.0,1.0,94,0.00,,,0.63,VWS V13.01,2013-05-24 03:22:00,
2013-05-23 23:23:00,68.1,66.3,19.65,SE,136,0.0,1.0,94,0.00,,,0.63,VWS V13.01,2013-05-24 03:23:00,
2013-05-23 23:24:00,68.1,66.3,19.65,SE,136,0.0,1.0,94,0.00,,,0.63,VWS V13.01,2013-05-24 03:24:00,
2013-05-23 23:26:00,68.1,66.3,19.65,SE,136,0.0,1.0,94,0.00,,,0.63,VWS V13.01,2013-05-24 03:26:00,
2013-05-23 23:27:00,68.1,66.3,19.65,SE,136,0.0,1.0,94,0.00,,,0.63,VWS V13.01,2013-05-24 03:27:00,
2013-05-23 23:29:00,68.1,66.3,19.65,SE,136,0.0,1.0,94,0.00,,,0.63,VWS V13.01,2013-05-24 03:29:00,
2013-05-23 23:31:00,68.1,66.3,19.65,SE,136,0.0,1.0,94,0.00,,,0.63,VWS V13.01,2013-05-24 03:31:00,
2013-05-23 23:32:00,68.1,66.3,19.65,SE,136,0.0,1.0,94,0.00,,,0.63,VWS V13.01,2013-05-24 03:32:00,
2013-05-23 23:34:00,68.1,66.3,19.65,SE,136,0.0,1.0,94,0.00,,,0.63,VWS V13.01,2013-05-24 03:34:00,
2013-05-23 23:36:00,68.1,66.3,19.65,SE,136,0.0,1.0,94,0.00,,,0.63,VWS V13.01,2013-05-24 03:36:00,
2013-05-23 23:37:00,68.1,66.3,19.65,SE,136,0.0,1.0,94,0.00,,,0.63,VWS V13.01,2013-05-24 03:37:00,
2013-05-23 23:39:00,68.1,66.3,19.65,SE,136,0.0,1.0,94,0.00,,,0.63,VWS V13.01,2013-05-24 03:39:00,
2013-05-23 23:41:00,68.1,66.3,19.65,SE,136,0.0,1.0,94,0.00,,,0.63,VWS V13.01,2013-05-24 03:41:00,
2013-05-23 23:42:00,68.1,66.3,19.65,SE,136,0.0,1.0,94,0.00,,,0.63,VWS V13.01,2013-05-24 03:42:00,
2013-05-23 23:44:00,68.1,66.3,19.65,NNE,13,0.0,1.0,94,0.00,,,0.63,VWS V13.01,2013-05-24 03:44:00,
2013-05-23 23:45:00,68.1,66.3,19.65,NNE,13,0.0,1.0,94,0.00,,,0.63,VWS V13.01,2013-05-24 03:45:00,
2013-05-23 23:46:00,68.1,66.3,19.65,NNE,13,0.0,1.0,94,0.00,,,0.63,VWS V13.01,2013-05-24 03:46:00,
2013-05-23 23:47:00,68.1,66.3,19.65,NNE,13,0.0,1.0,94,0.00,,,0.63,VWS V13.01,2013-05-24 03:47:00,
2013-05-23 23:49:00,68.2,66.7,19.65,NNE,13,0.0,1.0,95,0.00,,,0.63,VWS V13.01,2013-05-24 03:49:00,
2013-05-23 23:50:00,68.1,66.6,19.65,NNE,13,0.0,1.0,95,0.00,,,0.63,VWS V13.01,2013-05-24 03:50:00,
2013-05-23 23:52:00,68.1,66.3,19.65,NNE,13,0.0,1.0,94,0.00,,,0.63,VWS V13.01,2013-05-24 03:52:00,
2013-05-23 23:54:00,68.1,66.3,19.65,NNE,13,0.0,1.0,94,0.00,,,0.63,VWS V13.01,2013-05-24 03:54:00,
2013-05-23 23:55:00,68.1,66.3,19.65,NNE,13,0.0,1.0,94,0.00,,,0.63,VWS V13.01,2013-05-24 03:55:00,
2013-05-23 23:57:00,68.1,66.3,19.65,NNE,13,0.0,1.0,94,0.00,,,0.63,VWS V13.01,2013-05-24 03:57:00,
2013-05-23 23:59:00,68.1,66.3,19.65,NNE,13,0.0,1.0,94,0.00,,,0.63,VWS V13.01,2013-05-24 03:59:00,